GFSMW_con_sbcape_069.txt.gz
CAPE
209 253 183 107 18 16 0 66 265 376 487 424 280 89 39 75 191 515 600 686 604 455 384 132 0 0 0 0 0 0 0 0 0 0 0 0 0 0 0 0 0 0 0
277 272 299 164 88 90 213 249 274 459 513 396 219 49 40 54 173 728 704 698 540 383 253 78 0 0 0 0 0 0 0 0 0 0 0 1 0 0 0 0 0 0 0
392 323 282 438 204 242 321 319 370 367 533 468 286 102 84 103 232 666 597 532 468 394 258 57 1 0 0 0 0 0 0 0 0 0 0 0 0 0 0 1 0 0 0
445 462 264 341 540 547 545 588 543 514 705 693 401 208 123 150 325 538 484 312 341 224 15 2 1 3 0 2 0 0 0 0 2 0 0 0 0 0 0 0 0 0 0
635 538 599 344 379 561 642 739 654 756 752 985 683 434 312 333 472 723 676 593 174 24 2 0 4 6 0 1 1 0 0 0 0 0 0 0 0 0 0 0 0 0 0
603 485 488 600 534 1188 1064 700 723 857 882 990 1036 885 678 623 529 932 689 520 117 5 0 0 3 11 0 4 1 0 0 0 0 0 0 0 0 0 0 0 0 0 0
753 761 483 474 591 779 952 993 843 769 935 1129 1248 1283 1247 1063 1180 904 589 395 28 5 0 0 0 2 0 11 6 2 0 0 0 0 0 0 0 0 0 0 0 0 0
341 866 927 798 656 707 1042 1260 1112 993 845 1105 1527 1558 1440 1307 1522 1151 766 344 36 27 1 0 0 0 2 21 13 0 0 0 0 0 0 0 0 0 0 0 0 0 0
305 409 895 1095 1187 1049 1270 1939 1401 1230 1122 1368 1740 1513 1694 1400 1166 1026 567 215 40 0 0 0 0 0 0 0 0 0 0 0 0 0 0 5 1 0 0 2 0 1 9
234 412 506 903 1241 1413 1451 1709 1477 1223 1213 1344 1469 1367 1387 1043 725 289 291 49 0 0 0 0 0 0 0 0 0 0 0 0 0 0 0 10 4 4 2 4 1 3 7
341 282 334 581 1017 1340 1489 1587 1545 1414 1205 1272 1590 1416 1148 771 584 328 155 17 1 0 0 0 0 0 1 0 0 0 0 0 0 0 19 7 7 7 7 3 4 3 5
159 453 451 358 442 754 1083 1296 1476 1494 1311 1143 1281 1267 764 475 293 47 0 0 0 0 0 0 0 0 0 0 0 0 0 0 0 5 25 10 9 16 11 10 8 13 19
115 358 630 741 709 741 849 975 1075 1097 1063 1020 1036 154 1 0 1 2 0 0 0 0 0 0 1 1 0 0 0 0 0 4 11 28 12 10 14 16 15 16 14 22 12
102 264 609 849 1107 1107 1037 1035 1111 997 656 75 1 1 1 1 1 1 1 1 2 4 5 2 0 0 0 0 0 0 0 15 14 19 13 12 8 10 22 19 28 25 39
5 143 573 931 1176 1454 1321 551 17 0 0 0 1 4 5 5 10 4 3 2 3 2 0 0 0 0 0 0 0 2 0 6 14 18 12 28 23 1 2 5 6 13 14
109 36 344 1131 1282 1183 966 3 3 2 1 3 6 9 11 6 7 7 6 3 2 0 0 0 0 0 0 0 0 0 1 0 0 1 8 10 3 1 0 0 0 0 3
159 175 551 980 790 508 72 4 5 4 3 5 8 8 10 9 4 1 0 0 0 0 0 0 4 5 11 0 0 0 0 0 0 0 4 4 3 9 35 26 0 0 0
83 191 267 185 138 46 5 7 5 3 3 3 6 7 4 0 0 0 0 0 0 4 9 17 10 1 0 0 0 0 0 0 0 0 2 15 25 35 32 49 63 55 57
0 0 0 0 1 2 2 3 5 4 4 6 4 4 2 0 0 0 0 0 0 14 2 0 0 0 0 0 0 0 0 0 0 0 0 2 7 2 0 2 37 54 47
0 0 0 0 0 0 0 0 0 1 3 3 2 0 0 0 4 3 11 2 0 0 0 0 0 0 0 0 0 0 0 0 0 0 0 0 0 0 0 4 34 45 44
0 0 0 0 0 0 0 0 0 1 0 1 1 0 0 1 0 0 0 0 0 0 0 0 0 0 0 0 0 0 0 1 1 0 0 1 0 0 0 1 32 39 12
0 0 0 0 0 0 0 0 0 1 0 0 0 0 0 0 0 0 0 0 0 0 0 0 0 0 0 0 0 0 0 0 1 2 7 6 1 1 0 1 0 0 3
0 0 0 0 0 0 0 0 0 0 0 0 0 0 0 0 0 0 0 0 0 0 0 0 0 0 0 0 0 0 0 0 4 4 11 5 0 1 1 1 0 0 39
0 0 0 0 0 0 0 0 0 0 0 0 0 0 0 0 0 0 0 0 0 0 0 0 0 0 0 0 0 0 1 1 0 4 11 0 0 4 2 7 10 24 54
0 0 0 0 0 0 0 0 0 0 0 0 0 0 0 0 0 0 0 0 0 0 0 0 0 2 4 1 0 2 3 8 5 14 17 44 44 38 27 29 25 88 97
0 0 0 0 0 0 0 0 0 0 0 0 0 0 0 0 0 0 0 0 0 0 0 0 0 1 0 0 0 0 1 1 2 3 29 29 41 39 31 25 28 15 28

GFSMW_con_sbcape_072.txt.gz
CAPE
195 87 67 48 0 0 0 0 0 0 15 69 44 66 72 31 59 138 337 433 482 459 268 270 105 0 0 0 0 0 0 0 0 0 0 0 0 0 0 0 0 0 0
189 140 31 8 0 0 0 0 0 117 229 218 130 22 0 0 0 134 418 494 528 480 352 334 14 0 0 0 0 0 0 0 0 0 0 0 0 0 0 0 0 0 0
208 185 101 2 0 0 0 0 111 324 325 291 192 56 10 19 10 493 529 494 520 484 292 237 33 0 0 0 0 0 0 0 0 0 0 0 0 0 0 0 0 0 0
228 230 196 117 4 0 4 110 202 380 391 345 149 53 23 18 52 463 550 478 430 422 315 214 107 6 2 0 0 0 0 0 0 0 0 0 0 0 0 0 0 0 0
184 277 257 256 125 147 222 307 309 311 227 365 422 175 84 30 44 189 476 403 315 299 184 90 0 0 0 0 0 0 0 0 0 0 0 0 0 0 0 0 0 0 0
457 398 272 249 415 328 448 656 582 449 461 570 361 594 196 296 324 656 503 415 268 117 55 34 0 0 0 0 0 1 0 0 0 0 0 0 0 0 0 0 0 0 0
639 522 520 291 271 456 618 814 786 585 612 916 654 691 849 359 467 655 500 441 122 15 2 0 0 0 0 0 0 0 0 0 0 0 0 0 0 0 0 0 0 0 0
650 503 372 666 485 490 787 793 775 746 751 926 1089 1057 929 984 668 810 616 404 149 0 0 0 0 0 0 0 0 0 0 0 0 0 0 0 0 0 0 0 0 0 0
322 580 692 453 646 686 881 1004 889 780 733 1020 1117 1275 1291 1259 1120 1040 844 487 128 8 0 0 0 0 0 0 0 0 0 0 0 0 0 0 0 0 0 0 0 0 0
268 388 482 936 594 703 928 1154 1086 1104 983 957 1141 1306 1429 1413 1315 1040 543 228 110 0 0 0 0 0 0 0 0 0 0 0 0 0 0 0 0 0 0 0 0 0 0
284 293 447 618 1121 972 711 1288 1466 1375 1267 1165 1218 1355 1387 857 525 315 244 91 1 0 0 0 0 0 0 0 0 0 0 0 0 0 0 0 0 0 0 0 0 0 0
110 329 337 381 543 1333 1481 1350 1512 1517 1407 1183 1352 1349 907 429 290 93 3 0 0 0 0 0 0 0 0 0 0 0 0 0 0 0 0 0 0 0 0 0 0 0 0
52 200 488 457 457 626 806 1383 1666 1592 1521 967 746 275 14 0 0 0 0 0 1 0 0 0 0 0 0 0 0 0 0 0 0 0 0 0 3 0 0 0 0 0 0
1 113 349 560 686 787 883 1061 1060 578 282 58 0 1 1 2 3 1 4 3 2 0 0 0 0 0 0 0 0 0 0 0 0 0 4 4 2 0 0 0 0 0 0
2 2 104 677 934 1095 758 385 138 0 0 1 2 3 3 1 1 6 5 0 0 1 0 0 0 0 0 0 0 0 0 0 1 0 3 4 7 9 1 0 0 0 0
86 37 7 921 1214 762 40 0 0 0 2 2 4 5 2 3 3 3 1 1 1 0 0 0 0 0 0 0 0 0 0 0 0 0 0 0 0 0 0 0 0 0 0
111 113 210 1255 825 25 0 0 0 0 1 1 2 5 4 7 7 1 1 0 0 0 0 0 0 0 0 0 0 0 0 0 0 0 0 0 0 0 0 0 0 0 0
83 195 777 699 30 0 0 0 0 1 1 3 4 5 3 1 0 0 0 0 0 0 0 0 0 2 0 0 0 0 0 0 0 0 0 0 0 0 0 0 0 0 0
45 129 163 137 0 0 0 0 1 2 2 1 2 0 0 0 0 0 0 0 0 0 0 6 0 0 0 0 0 0 0 0 0 0 0 0 0 0 0 0 0 0 0
0 0 0 0 0 1 0 1 1 1 1 0 0 0 0 0 0 0 0 0 0 6 0 0 0 0 0 0 0 0 0 0 0 0 0 0 0 0 0 0 0 0 0
0 0 0 0 0 0 0 0 0 0 1 1 0 0 0 0 0 0 0 0 0 0 0 0 0 0 0 0 0 0 0 0 0 0 0 0 0 0 0 0 0 0 0
0 0 0 0 0 0 0 0 0 0 0 0 0 0 0 0 0 0 0 0 0 0 0 0 0 0 0 0 0 0 0 0 0 0 0 0 0 0 0 0 0 0 0
0 0 0 0 0 0 0 0 0 0 0 0 0 0 0 0 0 0 0 0 0 0 0 0 0 0 0 0 0 0 0 0 0 0 0 0 0 0 0 12 3 1 0
0 0 0 0 0 0 0 0 0 0 0 0 0 0 0 0 0 0 0 0 0 0 0 0 0 0 0 0 0 0 0 0 0 0 0 0 0 0 0 0 0 0 2
0 0 0 0 0 0 0 0 0 0 0 0 0 0 0 0 0 0 0 0 0 0 0 0 0 0 0 0 0 0 0 0 0 0 0 0 0 0 0 0 0 0 0
0 0 0 0 0 0 0 0 0 0 0 0 0 0 0 0 0 0 0 0 0 0 0 0 0 0 0 0 0 0 0 0 0 0 0 0 0 0 0 0 0 0 0

GFSMW_con_sbcape_075.txt.gz
CAPE
25 0 0 1 1 0 3 0 0 0 0 0 0 0 5 0 0 0 0 54 225 177 92 0 0 0 0 0 0 0 0 0 0 0 0 0 0 0 0 0 0 0 0
58 1 0 0 0 1 0 0 0 0 0 0 0 0 0 0 0 0 69 122 187 231 57 39 4 0 0 0 0 0 0 0 0 0 0 0 0 0 0 0 0 0 0
55 19 0 0 0 0 0 0 0 0 0 0 0 0 0 0 0 0 52 117 185 192 148 46 4 0 0 0 0 0 0 0 0 0 0 0 0 0 0 0 0 0 0
14 12 2 0 0 0 0 0 0 0 0 0 0 0 0 0 0 0 26 100 160 214 198 96 14 0 0 0 0 0 0 0 0 0 0 0 0 0 0 0 0 0 0
7 0 0 0 0 0 0 0 0 0 12 22 23 11 0 0 0 62 144 175 168 164 183 187 29 0 0 0 0 0 0 0 0 0 0 0 0 0 0 0 0 0 0
56 5 0 0 0 0 0 0 0 2 37 45 50 18 0 0 0 24 208 213 163 219 159 80 0 0 0 0 0 0 0 0 0 0 0 0 0 0 0 0 0 0 0
42 33 7 0 0 0 0 0 0 6 77 124 109 9 0 0 0 8 234 202 79 51 12 1 0 0 0 0 0 0 0 0 0 0 0 0 0 0 0 0 0 0 0
30 72 48 35 4 0 0 0 34 68 108 175 165 82 17 0 5 28 111 144 100 56 2 0 0 0 0 0 0 0 0 0 0 0 0 0 0 0 0 0 0 0 0
140 28 131 113 119 127 10 23 299 186 209 205 261 90 170 61 24 10 45 66 14 0 0 0 0 0 0 0 0 0 0 0 0 0 0 0 0 0 0 0 0 0 0
23 166 143 129 59 127 227 227 297 444 357 285 387 451 272 249 260 169 61 2 5 0 0 0 0 0 0 0 0 1 0 0 0 0 0 0 0 0 0 0 0 0 0
21 26 0 69 198 85 146 330 330 333 338 302 290 507 562 472 421 157 0 0 0 0 0 0 1 0 0 0 0 0 0 0 0 0 0 0 0 0 0 0 0 0 0
0 5 36 0 139 224 323 402 475 553 635 494 316 524 480 194 36 0 0 0 0 0 0 1 0 0 0 0 0 0 0 0 0 0 0 0 0 0 0 0 0 0 0
0 0 6 41 2 170 411 584 702 462 15 441 426 203 0 0 0 0 0 1 1 3 3 0 0 0 0 0 0 0 0 0 0 0 0 0 0 0 0 0 0 0 0
0 9 20 19 17 205 242 138 24 60 0 0 0 0 2 0 2 0 2 0 0 0 0 0 0 0 0 0 0 0 0 0 0 0 0 0 0 0 0 0 0 0 0
0 0 0 1 283 65 0 0 0 0 0 1 0 1 1 0 0 0 0 0 0 0 0 0 0 0 0 0 0 0 0 0 0 0 0 0 0 0 0 0 0 0 0
0 6 14 341 174 3 0 0 0 1 0 1 3 1 0 0 0 0 0 2 0 0 0 0 0 0 0 0 0 0 0 0 0 0 0 0 0 0 0 0 0 0 0
0 58 613 338 3 0 0 0 0 0 0 0 1 1 1 1 2 0 0 0 0 0 0 0 0 0 0 0 0 0 0 0 0 0 0 0 0 0 0 0 0 0 0
0 255 88 0 0 0 0 0 0 0 0 1 1 2 1 2 0 0 0 0 0 0 0 0 0 0 0 0 0 0 0 0 0 0 0 0 0 0 0 0 0 0 0
4 18 0 0 0 0 0 0 0 0 1 1 1 0 0 0 0 0 0 0 0 0 0 0 0 0 0 0 0 0 0 0 0 0 0 0 0 0 0 0 0 0 0
0 0 0 0 0 0 0 0 0 0 0 0 0 0 0 0 0 0 0 0 0 0 0 0 0 0 0 0 0 0 0 0 0 0 0 0 0 0 0 0 0 0 0
0 0 0 0 0 0 0 0 0 0 0 0 0 0 0 0 0 0 0 0 0 0 0 0 0 0 0 0 0 0 0 0 0 0 0 0 0 0 0 0 0 0 1
0 0 0 0 0 0 0 0 0 0 0 0 0 0 0 0 0 0 0 0 0 0 0 0 0 0 0 0 0 0 0 0 0 0 0 0 0 0 0 0 7 5 0
0 0 0 0 0 0 0 0 0 0 0 0 0 0 0 0 0 0 0 0 0 0 0 0 0 0 0 0 0 0 0 0 0 0 0 0 0 0 0 0 0 0 0
0 0 0 0 0 0 0 0 0 0 0 0 0 0 0 0 0 0 0 0 0 0 0 0 0 0 0 0 0 0 0 0 0 0 0 0 0 0 0 0 0 0 0
0 0 0 0 0 0 0 0 0 0 0 0 0 0 0 0 0 0 0 0 0 0 0 0 0 0 0 0 0 0 0 0 0 0 0 0 0 0 0 0 0 0 0
0 0 0 0 0 0 0 0 0 0 0 0 0 0 0 0 0 0 0 0 0 0 0 0 0 0 0 0 0 0 0 0 0 0 0 0 0 0 0 0 0 0 0

GFSMW_con_sbcape_078.txt.gz
CAPE
0 0 0 1 0 1 0 0 0 0 0 0 0 0 0 0 0 0 0 10 0 10 0 0 0 0 0 0 0 0 0 0 0 0 0 0 0 0 0 0 0 0 0
1 0 0 0 0 0 0 0 0 0 0 0 0 0 0 0 0 0 0 0 6 15 0 0 0 0 0 0 0 0 0 0 0 0 0 0 0 0 0 0 0 0 0
0 0 1 0 0 0 0 0 0 0 0 0 0 0 0 0 0 0 0 0 0 31 6 0 0 0 0 0 0 0 0 0 0 0 0 0 0 0 0 0 0 0 0
0 0 0 0 0 0 0 0 0 0 0 0 0 0 0 0 0 0 0 0 0 8 8 0 0 0 0 0 0 0 0 0 0 0 0 0 0 0 0 0 0 0 0
0 0 0 0 0 0 0 0 0 0 0 0 0 0 0 0 0 0 0 0 1 22 56 21 0 0 0 0 0 0 0 0 0 0 0 0 0 0 0 0 0 0 0
0 0 0 0 0 0 0 0 0 0 0 0 0 0 0 0 0 0 0 0 28 49 55 47 0 0 0 0 0 0 0 0 0 0 0 0 0 0 0 0 0 0 0
0 0 0 0 0 0 0 0 0 0 0 0 0 0 0 0 0 0 0 3 17 43 57 49 31 1 0 0 0 0 0 0 0 0 0 0 0 0 0 0 0 0 0
15 0 0 0 0 0 0 0 0 0 0 0 2 9 1 0 0 0 0 13 50 65 52 24 23 0 0 0 0 0 0 0 0 0 0 0 0 0 0 0 0 0 0
16 13 0 0 0 0 0 0 0 0 0 0 15 68 29 8 0 0 0 33 65 45 26 18 0 0 0 0 0 0 0 0 0 0 0 0 0 0 0 0 0 0 0
2 16 36 10 0 0 0 0 0 0 0 0 12 63 60 8 0 0 0 0 48 23 0 0 0 0 0 0 0 0 0 0 0 0 0 0 0 0 0 0 0 0 0
0 0 0 30 27 0 0 0 0 0 0 21 19 98 26 29 12 0 0 0 0 0 0 0 0 1 1 0 0 0 0 0 0 0 0 0 0 0 0 0 0 0 0
0 5 21 0 39 36 20 6 0 6 95 142 81 83 137 32 37 1 0 0 0 1 0 0 1 2 1 0 0 0 0 0 0 0 0 0 0 0 0 0 0 0 0
0 0 0 0 0 33 20 35 69 79 175 206 120 4 4 53 115 38 0 0 0 0 0 0 1 0 0 0 0 0 0 0 0 0 0 0 0 0 0 0 0 0 0
0 0 0 0 9 32 58 30 73 184 112 0 0 1 1 1 0 0 0 0 1 0 0 0 0 0 0 0 0 0 0 0 0 0 0 0 0 0 0 0 0 0 0
0 0 0 0 58 6 9 1 0 0 0 0 0 0 1 1 0 2 3 1 0 0 0 1 0 0 0 0 0 0 0 0 0 0 0 0 0 0 0 0 0 0 0
0 0 0 81 0 0 0 0 0 0 0 0 0 0 0 0 0 0 0 0 1 0 0 0 0 0 0 0 0 0 0 0 0 0 0 0 0 0 0 0 0 0 0
0 3 6 61 0 0 0 0 0 0 0 0 2 2 2 0 0 0 0 0 0 0 0 0 0 0 0 0 0 0 0 0 0 0 0 0 0 0 0 0 0 0 0
1 132 42 0 0 0 0 0 0 0 0 1 2 0 1 0 0 0 0 0 0 0 0 0 0 0 0 0 0 0 0 0 0 0 0 0 0 0 0 0 0 0 0
36 20 0 0 0 0 0 0 0 0 1 3 1 0 0 0 0 0 0 0 0 0 0 0 0 0 0 0 0 0 0 0 0 0 0 0 0 0 0 0 0 0 0
3 0 0 0 0 0 0 0 0 1 1 0 0 0 0 0 0 0 0 0 0 0 0 0 0 0 0 0 0 0 0 0 0 0 0 0 0 0 0 0 0 0 0
0 0 0 0 0 0 0 0 0 0 0 0 0 0 0 0 0 0 0 0 0 0 0 0 0 0 0 0 0 0 0 0 0 0 0 0 0 0 0 0 0 0 0
0 0 0 0 0 0 0 0 0 0 0 0 0 0 0 0 0 0 0 0 0 0 0 0 0 0 0 0 0 0 0 0 0 0 0 0 0 0 0 0 0 0 0
0 0 0 0 0 0 0 0 0 0 0 0 0 0 0 0 0 0 0 0 0 0 0 0 0 0 0 0 0 0 0 0 0 0 0 0 0 0 0 0 0 0 0
0 0 0 0 0 0 0 0 0 0 0 0 0 0 0 0 0 0 0 0 0 0 0 0 0 0 0 0 0 0 0 0 0 0 0 0 0 0 0 0 0 0 0
0 0 0 0 0 0 0 0 0 0 0 0 0 0 0 0 0 0 0 0 0 0 0 0 0 0 0 0 0 0 0 0 0 0 0 0 0 0 0 0 0 0 0
0 0 0 0 0 0 0 0 0 0 0 0 0 0 0 0 0 0 0 0 0 0 0 0 0 0 0 0 0 0 0 0 0 0 0 0 0 0 0 0 0 0 0

GFSMW_con_sbcape_084.txt.gz
CAPE
0 8 2 3 3 1 4 1 1 2 0 0 0 0 0 0 0 0 4 4 5 2 0 0 0 0 0 0 0 0 0 0 0 0 0 0 0 0 0 0 0 0 0
0 1 4 2 3 2 2 1 0 0 0 0 0 1 0 0 0 0 11 41 49 37 7 0 0 0 0 0 0 0 0 0 0 0 0 0 0 0 0 0 0 0 0
0 0 1 1 2 1 0 0 0 0 0 0 0 0 0 0 1 0 0 5 30 48 42 16 0 0 0 0 0 0 0 0 0 0 0 0 0 0 0 0 0 0 0
0 0 0 0 0 0 0 0 0 0 0 0 0 0 0 0 0 0 0 0 0 7 8 1 0 0 0 0 0 0 0 0 0 0 0 0 0 0 0 0 0 0 0
0 0 0 0 0 0 0 0 0 0 0 0 0 0 0 0 0 0 0 0 0 0 2 0 0 0 0 0 0 0 0 0 0 0 0 0 0 0 0 0 0 0 0
0 0 0 0 0 0 0 0 0 0 0 0 0 0 0 0 0 0 0 0 0 0 0 0 0 0 0 0 0 0 0 0 0 0 0 0 0 0 0 0 0 0 0
0 0 0 0 0 0 0 0 0 0 0 0 0 0 0 0 0 0 0 0 0 0 0 0 0 0 0 0 0 0 0 0 0 0 0 0 0 0 0 0 0 0 0
0 0 0 0 0 0 0 0 0 0 0 0 0 0 0 0 0 0 0 0 0 0 0 0 2 3 17 14 3 0 0 0 0 0 0 0 0 0 0 0 0 0 0
0 0 0 0 0 0 0 0 0 0 0 0 0 0 0 0 0 0 0 0 0 0 0 0 0 0 0 0 0 0 0 0 0 0 0 0 0 0 0 0 0 0 0
0 0 0 0 0 0 0 0 0 0 0 0 0 0 0 0 0 0 0 0 0 0 0 0 0 0 0 0 0 0 0 0 0 1 1 0 0 0 0 0 0 0 0
0 0 0 0 0 0 0 0 0 0 0 0 0 0 0 0 0 0 0 0 0 0 0 0 0 0 0 0 0 0 0 0 0 0 0 0 0 0 0 0 0 0 0
0 0 0 0 0 0 0 0 0 0 0 0 0 0 0 0 0 0 0 0 0 0 0 0 0 0 0 0 0 0 0 0 0 0 0 1 0 1 0 0 0 0 0
0 0 0 0 0 0 0 0 0 0 0 0 0 0 0 0 0 0 0 0 0 0 0 0 0 0 0 0 0 0 0 0 1 3 1 1 0 0 0 0 0 0 0
0 0 0 0 0 0 0 0 0 0 0 0 0 0 0 0 0 0 0 0 0 0 0 0 0 0 1 0 0 0 0 0 0 0 0 0 0 0 0 0 0 0 0
0 0 0 0 0 0 0 0 0 0 0 0 0 0 0 0 0 0 0 0 0 0 0 0 1 0 0 0 2 0 0 1 1 0 0 0 0 0 0 0 0 0 0
0 0 0 0 0 0 0 0 0 0 0 0 0 0 1 1 1 1 0 1 0 1 0 0 0 0 0 0 0 0 0 0 0 0 0 0 0 0 0 0 0 0 0
0 0 0 0 0 0 0 0 0 0 0 0 0 0 0 0 0 0 0 1 0 0 0 0 1 0 0 1 0 0 0 0 0 0 0 0 0 0 0 0 0 0 0
0 0 0 0 0 0 0 0 0 0 0 0 0 0 0 0 0 0 0 0 0 0 0 0 1 1 1 0 0 0 0 0 0 0 0 0 0 0 0 0 0 0 0
0 0 0 0 0 0 0 0 0 0 0 0 0 0 0 0 0 0 0 0 0 0 0 0 0 0 0 0 0 0 0 0 0 0 0 0 0 0 0 0 0 0 0
0 0 0 0 0 0 0 0 0 0 0 0 1 0 1 0 0 0 0 0 0 0 0 0 0 0 0 0 0 0 0 0 0 0 0 0 0 0 0 0 0 0 0
0 0 0 0 0 0 0 0 0 0 0 0 0 0 0 0 0 0 0 0 0 0 0 0 0 0 0 0 0 0 0 0 0 0 0 0 0 0 0 0 0 0 0
0 0 0 0 0 0 0 0 0 0 0 0 0 0 0 0 0 0 0 0 0 0 0 0 0 0 0 0 0 0 0 0 0 0 0 0 0 0 0 0 0 0 0
0 1 0 0 0 0 0 0 0 0 0 0 0 0 0 0 0 0 0 0 0 0 0 0 0 0 0 1 4 2 0 0 0 0 0 0 0 0 0 0 0 0 0
0 0 0 0 0 0 0 0 0 0 0 0 0 0 0 0 0 0 0 0 0 0 0 0 0 1 1 1 0 0 0 0 0 0 0 0 0 0 0 0 0 0 0
0 0 0 0 0 0 0 0 0 0 0 0 0 0 0 0 0 0 0 0 0 0 0 0 1 0 0 1 0 1 0 0 0 0 0 1 1 0 0 0 0 0 0
0 0 0 0 0 0 0 0 0 0 0 0 0 0 0 0 0 0 1 2 1 0 0 1 0 2 2 1 0 1 2 2 0 0 0 0 0 0 0 0 0 0 0

GFSMW_con_sbcape_087.txt.gz
CAPE
0 10 10 6 7 10 4 1 2 1 0 5 7 5 1 17 1 1 38 52 50 43 56 8 0 0 0 0 0 0 0 0 0 0 0 0 0 0 0 0 0 0 0
0 4 6 12 6 7 5 3 2 0 0 3 1 0 0 0 4 6 9 13 16 29 51 32 9 0 1 1 0 0 0 0 0 0 0 0 0 0 0 0 0 0 0
0 0 2 12 5 6 4 3 2 2 0 0 0 0 0 0 5 6 2 27 31 28 12 23 33 48 27 6 9 0 0 1 0 0 0 0 0 0 0 0 0 0 0
0 0 1 3 12 2 4 2 1 1 2 0 0 0 0 0 0 0 7 3 20 41 27 38 64 74 61 53 14 0 0 1 0 0 0 0 0 0 0 0 0 0 0
0 0 0 1 0 3 2 4 0 0 0 0 0 0 0 1 0 0 0 5 55 70 70 102 117 94 79 46 31 0 0 0 6 0 0 0 0 0 0 0 0 0 0
0 0 0 0 2 2 1 1 1 1 0 0 0 0 0 0 0 0 0 2 9 16 31 70 84 74 59 60 44 29 15 3 0 0 0 0 0 0 0 0 0 0 0
0 0 0 0 0 2 3 0 0 4 1 0 1 0 0 0 0 0 0 0 0 0 0 20 33 36 61 56 87 91 42 2 1 0 0 0 0 0 0 0 0 0 0
0 0 0 0 0 0 1 1 1 3 5 1 0 0 0 0 0 0 0 0 0 0 0 0 4 13 25 48 74 149 130 19 22 3 0 0 0 0 0 0 0 0 0
0 0 0 0 0 0 1 1 0 0 3 2 0 0 0 0 0 0 0 0 0 0 0 0 0 5 10 50 83 172 109 48 31 0 0 0 0 1 2 0 0 0 0
0 2 0 0 0 0 0 2 0 2 1 1 0 0 0 0 0 0 0 0 0 0 0 0 0 0 6 83 101 64 45 20 2 0 0 1 0 1 0 0 0 0 0
0 8 12 4 0 0 0 1 3 0 0 0 0 0 0 0 0 0 0 0 0 0 0 0 0 0 0 0 2 12 12 0 0 0 0 1 1 0 0 1 0 0 0
0 0 16 2 0 0 0 0 0 0 0 0 0 0 0 0 0 0 0 0 0 0 0 0 0 0 0 0 0 1 0 0 0 0 4 2 1 0 0 0 0 0 0
0 0 0 13 26 1 0 0 0 0 0 0 0 0 0 0 0 0 0 0 0 0 0 0 0 0 0 0 0 0 0 0 0 0 1 0 0 0 0 0 1 0 0
0 0 0 1 34 24 4 0 0 0 0 0 0 0 0 0 0 0 0 0 0 0 1 5 12 2 0 0 0 0 0 0 0 0 0 0 0 0 0 0 0 0 0
0 0 3 9 2 14 14 2 0 0 0 0 0 0 0 0 0 0 0 0 0 2 14 10 6 0 0 0 0 0 0 0 1 1 0 0 1 0 0 0 0 0 0
0 0 0 0 0 0 9 0 0 0 0 0 0 0 0 0 0 0 0 3 5 2 1 0 0 0 0 0 1 0 0 0 0 0 1 2 0 0 0 0 0 0 0
0 0 0 0 0 0 0 0 0 0 0 0 0 0 0 0 2 1 0 0 0 0 0 0 0 0 0 1 1 0 0 0 0 0 0 0 0 0 0 0 0 0 0
0 0 0 0 0 0 0 0 1 2 2 1 2 1 0 0 0 0 0 0 0 0 1 1 1 1 1 0 0 0 0 0 1 0 0 0 0 0 0 0 0 0 0
0 0 0 0 0 0 0 2 3 1 1 1 1 1 0 0 0 0 0 1 1 1 1 2 1 1 1 0 0 0 0 0 0 0 0 0 0 0 0 0 0 0 0
0 0 0 0 1 1 2 1 2 1 1 1 1 1 0 0 0 1 1 1 1 1 0 0 1 1 1 0 0 0 0 0 0 0 0 0 0 0 0 0 0 0 0
0 0 0 1 4 1 1 1 1 1 1 1 0 0 0 1 1 1 1 1 1 0 0 0 0 0 0 0 0 0 0 0 0 0 0 0 0 0 0 0 0 0 0
4 1 2 1 1 0 0 1 1 1 0 0 0 1 0 0 1 1 1 0 0 0 1 1 2 3 3 1 1 1 1 1 2 3 2 1 0 1 2 0 0 0 0
1 3 1 0 0 0 0 0 0 0 0 0 0 0 0 0 0 1 1 1 1 1 2 2 3 1 1 2 4 4 3 1 2 3 1 0 0 0 0 0 0 0 0
1 1 1 1 1 0 0 0 0 0 0 0 0 0 0 0 0 0 0 1 1 1 1 1 1 1 2 3 4 4 5 2 2 1 2 0 0 0 4 3 2 4 5
0 0 0 0 0 0 0 0 0 0 0 0 0 0 0 0 1 1 1 1 1 2 2 5 5 7 6 5 4 3 5 6 1 2 5 6 5 5 7 8 5 6 7
0 0 0 0 0 0 0 0 0 0 0 0 0 2 2 2 1 2 5 7 4 3 2 1 3 7 3 2 4 1 3 7 0 6 9 12 13 11 10 12 12 12 8

GFSMW_con_sbcape_090.txt.gz
CAPE
80 0 2 9 10 7 10 10 10 8 0 0 3 3 10 17 13 19 59 80 68 70 99 41 36 4 27 30 5 0 0 0 0 0 0 0 0 0 0 0 0 0 0
35 0 2 16 9 8 7 9 14 7 8 2 0 5 5 9 4 15 76 112 114 90 147 102 69 85 43 27 7 0 3 6 0 0 5 15 1 0 0 0 0 0 0
126 0 0 6 4 14 12 7 8 9 7 21 2 0 0 1 2 10 38 94 111 115 95 95 89 90 82 75 72 86 134 131 34 0 64 127 127 90 0 0 0 0 0
157 7 0 0 12 22 18 15 7 9 12 2 1 1 1 8 2 1 12 49 102 99 85 87 83 101 98 92 134 145 181 166 171 30 0 22 89 129 124 0 0 0 0
192 62 3 0 2 7 25 25 12 10 8 10 3 0 0 43 14 14 2 9 33 32 38 67 83 93 117 126 172 161 179 157 191 162 125 23 50 55 77 108 57 0 0
195 91 19 0 0 2 6 27 24 13 9 10 7 0 0 0 12 6 21 19 3 10 27 49 99 121 124 127 186 227 216 208 198 229 219 184 126 96 63 35 62 124 36
187 167 33 1 0 3 7 13 13 12 9 11 12 5 4 2 33 42 14 18 30 40 58 86 105 138 211 293 349 316 319 364 344 325 371 338 242 275 232 113 25 67 0
209 273 95 55 0 0 5 5 4 5 9 18 18 29 25 17 22 46 59 36 56 94 80 110 122 160 202 267 229 234 244 255 305 336 329 349 454 268 265 95 0 0 0
213 331 236 101 52 0 0 7 8 9 6 10 16 9 24 21 16 15 37 52 25 46 103 62 64 50 47 50 69 107 169 284 405 395 545 534 431 270 36 0 3 0 0
218 279 383 209 146 33 0 0 0 0 4 15 13 13 14 16 17 15 10 11 11 1 10 16 25 17 9 27 86 188 209 239 322 226 170 84 52 30 1 0 6 0 0
313 287 312 330 216 117 13 0 0 0 0 1 5 9 9 10 10 12 14 4 3 1 0 0 11 21 14 75 148 197 168 92 31 36 13 6 0 0 0 2 4 0 2
257 326 311 317 319 227 74 0 0 0 0 0 1 2 4 6 7 4 6 11 6 7 3 3 1 2 17 59 133 43 0 0 1 2 8 2 0 0 0 10 10 0 0
111 260 342 360 379 321 247 131 8 0 0 0 0 0 3 5 16 23 15 8 6 9 10 7 8 4 29 5 38 2 0 0 6 6 7 0 2 0 2 6 4 6 0
37 200 306 391 406 375 339 273 184 37 0 0 0 0 0 0 4 5 5 9 7 1 1 1 0 1 2 5 33 30 2 0 1 1 0 0 2 0 0 0 1 0 0
1 156 282 379 436 441 401 310 277 143 40 0 0 0 0 0 0 0 0 0 0 0 0 0 11 48 87 131 130 1 0 0 0 0 0 0 0 0 0 0 3 0 0
5 3 13 208 371 406 489 347 239 192 68 30 4 0 0 0 0 0 0 0 0 3 4 38 57 117 0 0 1 1 0 0 0 0 2 1 1 1 0 0 0 0 0
0 0 2 0 116 345 326 441 292 177 97 52 28 19 15 2 0 0 3 8 19 33 2 0 0 2 1 1 1 0 0 0 1 0 1 2 1 0 0 0 0 0 0
0 0 1 9 0 47 208 226 209 145 72 66 31 19 12 7 1 6 3 1 3 3 3 2 1 1 1 0 0 0 0 0 0 0 0 1 1 1 0 0 0 0 0
0 0 0 0 0 0 24 55 45 90 50 10 2 4 7 1 1 0 2 1 1 1 2 2 2 2 2 0 0 0 0 0 2 2 2 1 2 1 1 0 0 0 0
0 0 0 0 0 1 4 0 0 4 4 3 2 1 0 0 1 1 1 1 1 2 2 3 3 1 2 0 0 0 0 0 0 0 0 0 0 0 0 0 0 0 0
0 0 0 0 0 0 1 3 3 2 3 1 1 1 1 1 1 1 1 1 2 2 1 1 1 2 1 1 0 0 0 0 0 0 0 0 0 1 3 0 2 2 1
2 0 3 6 6 2 4 3 3 2 1 0 0 1 1 1 1 2 3 2 2 1 2 2 3 3 3 2 3 2 2 1 1 3 7 5 1 0 0 0 0 0 0
1 1 4 3 3 2 0 1 1 0 0 0 0 1 0 1 2 2 2 2 1 1 1 2 3 2 2 3 2 2 2 1 6 6 0 0 0 0 0 0 0 0 13
5 1 0 0 1 0 1 0 0 0 0 0 0 1 1 1 0 1 1 1 1 1 2 2 2 3 5 7 8 9 8 1 4 1 4 0 0 0 1 2 5 26 16
0 0 0 0 0 0 0 0 0 0 0 0 0 1 1 1 2 3 2 1 2 2 5 8 9 12 13 12 6 6 9 9 1 5 10 11 9 9 9 13 16 18 21
0 0 0 0 0 0 0 0 0 0 0 1 1 5 5 5 4 3 8 6 4 1 1 1 9 16 10 4 3 2 1 0 0 7 12 19 23 20 13 18 25 20 20

GFSMW_con_sbcape_093.txt.gz
CAPE
261 154 33 1 6 8 15 16 6 7 8 11 6 1 3 3 1 0 0 0 18 41 85 51 15 5 12 0 9 47 62 28 0 0 0 0 0 0 0 0 0 0 0
348 122 95 0 4 6 9 8 15 5 9 9 11 7 2 5 6 5 9 15 38 65 78 65 51 42 64 49 92 100 72 28 0 1 25 29 0 0 0 0 0 0 0
380 171 103 13 4 4 8 12 10 9 9 8 11 16 10 10 14 38 33 32 56 80 104 92 97 99 70 170 185 163 127 99 16 42 98 139 111 76 0 1 0 0 0
311 170 117 52 8 11 12 3 13 5 14 22 12 6 4 13 35 26 33 62 95 97 64 111 138 135 215 245 107 148 166 294 172 99 35 167 129 149 132 42 6 9 0
261 190 153 35 22 4 8 17 8 6 17 7 10 12 7 1 3 21 45 74 22 28 38 116 168 145 182 239 216 280 349 316 270 216 186 104 96 142 121 70 140 46 5
237 213 145 5 31 7 5 21 16 13 14 18 23 18 0 0 7 2 6 33 24 6 63 170 148 262 245 224 305 338 329 287 288 332 254 241 142 103 176 173 155 171 128
299 299 189 20 10 2 3 5 10 15 11 14 26 26 17 19 3 5 0 12 24 28 54 84 147 259 277 276 282 308 375 412 369 485 422 389 232 310 333 269 287 220 208
344 371 253 102 10 7 2 9 4 6 17 11 14 14 7 0 0 15 31 3 4 0 11 26 39 190 236 258 329 373 587 519 459 509 573 472 387 252 186 323 342 96 39
325 414 321 304 48 20 25 14 1 5 11 16 21 17 2 1 2 26 91 63 14 12 33 47 110 136 253 250 322 433 439 419 449 536 603 451 400 356 605 559 183 113 24
260 374 438 504 243 30 13 4 0 0 2 9 21 21 16 31 32 27 36 72 65 75 102 115 172 198 213 305 383 258 337 301 380 438 413 502 362 212 215 136 86 14 7
292 396 478 511 501 190 25 3 0 0 0 2 5 12 12 14 29 32 70 53 54 41 53 120 115 153 174 219 260 313 321 314 371 375 292 209 20 5 5 29 21 2 0
383 399 426 611 547 477 162 27 0 0 0 2 28 7 20 68 67 103 35 110 115 138 100 78 66 71 147 202 179 174 158 237 271 285 124 0 0 6 20 3 0 0 0
237 453 434 531 657 595 412 143 18 0 0 0 24 199 317 245 234 154 104 122 43 38 47 59 101 99 131 139 227 271 279 257 186 57 0 0 0 1 0 0 0 0 0
32 159 369 508 574 615 584 375 143 10 0 0 0 115 111 127 138 244 259 256 231 125 68 158 177 186 104 93 141 130 230 164 38 3 0 0 1 0 0 0 0 0 0
6 16 230 475 615 680 728 617 440 227 53 9 19 80 67 88 46 148 147 140 152 69 39 61 69 37 43 34 104 109 38 102 28 1 0 2 2 1 0 0 0 0 0
0 27 40 223 468 633 775 697 638 767 541 241 161 52 65 19 66 120 102 84 23 16 12 13 12 26 0 1 1 1 0 0 1 1 1 1 1 1 1 0 1 0 0
2 6 20 31 128 410 621 760 693 628 510 360 199 123 66 26 101 25 22 18 29 35 0 0 0 1 1 0 0 0 0 1 1 1 1 1 1 1 0 1 1 1 1
2 3 0 0 9 53 399 694 733 608 538 396 280 172 149 77 44 59 28 1 1 2 1 2 1 1 2 0 1 0 0 1 1 2 3 3 2 3 1 1 0 1 1
0 0 0 0 0 5 159 522 657 577 469 354 284 211 170 108 9 1 2 1 1 1 2 2 2 2 2 0 0 0 1 1 2 2 1 0 1 2 2 1 1 1 0
0 0 0 0 1 68 133 364 474 415 228 204 26 0 0 1 1 1 1 1 1 2 1 1 1 1 2 1 0 0 0 0 0 0 1 3 0 0 0 1 0 0 0
0 0 0 0 1 32 118 211 98 1 2 1 1 1 0 1 1 1 1 2 2 1 1 2 2 3 3 2 0 0 0 0 0 0 0 1 1 1 0 0 6 3 0
2 0 0 0 0 2 0 3 3 1 1 0 0 1 1 1 1 1 4 4 1 1 2 3 2 2 2 3 3 3 2 1 2 5 5 1 0 0 0 0 0 0 0
5 3 1 1 1 1 0 1 1 0 0 0 0 1 1 0 1 2 1 1 1 1 1 1 2 4 3 2 0 0 0 0 2 1 0 0 0 0 0 0 0 0 20
2 1 2 1 2 1 0 0 1 0 0 0 0 0 0 0 0 0 1 1 1 2 2 2 4 8 10 7 9 6 3 2 2 1 1 0 0 0 0 5 4 20 23
0 0 1 0 1 1 1 0 0 0 0 1 1 1 1 1 1 2 1 1 2 2 4 6 7 9 10 11 3 2 2 2 0 4 7 11 7 6 5 6 9 13 13
1 1 0 0 0 1 2 2 2 0 0 1 3 3 3 4 3 3 5 8 4 4 2 1 5 7 4 2 1 0 0 0 0 5 8 14 12 8 5 6 6 5 4

GFSMW_con_sbcape_096.txt.gz
CAPE
195 352 116 1 0 1 10 6 9 6 7 2 0 3 19 29 9 8 0 5 0 13 12 1 0 0 0 0 8 0 0 0 0 0 0 0 0 0 0 0 0 0 0
462 166 70 0 0 5 6 11 1 9 10 3 3 0 1 0 0 0 0 0 0 0 2 6 6 1 0 0 0 0 0 0 0 0 0 0 0 0 0 0 0 0 0
427 184 103 0 0 2 5 9 11 11 1 10 3 2 1 2 1 1 0 0 0 0 0 26 17 27 11 11 25 2 7 1 0 0 19 85 41 0 0 0 0 0 0
483 220 124 1 0 1 3 3 12 18 0 5 1 1 1 0 0 0 0 0 0 4 38 50 62 33 47 48 40 38 41 46 5 0 0 19 97 64 0 0 0 0 0
446 274 103 38 0 3 12 4 5 12 2 0 1 0 0 0 0 0 0 0 0 0 15 46 67 74 76 58 83 73 69 79 173 88 103 40 48 29 22 0 12 0 0
379 266 140 25 0 0 3 11 7 9 5 14 0 0 2 2 1 0 0 0 3 15 21 41 85 92 48 53 71 62 87 149 204 144 145 91 71 33 14 12 3 9 3
369 241 117 8 19 0 1 6 11 3 7 9 16 3 1 2 2 2 3 2 0 2 0 0 8 44 35 42 41 61 89 158 134 127 124 147 94 63 56 30 0 0 0
448 259 151 7 36 0 1 1 12 6 5 13 11 5 0 2 2 4 2 4 0 0 0 0 0 42 31 44 74 115 129 155 171 123 122 107 113 94 77 45 35 2 1
312 305 272 38 8 2 0 1 7 9 2 12 18 12 4 8 6 1 0 0 0 0 0 0 0 13 38 51 87 104 116 157 115 140 115 101 115 153 126 79 62 46 11
291 332 315 219 33 22 0 0 0 2 1 1 10 10 1 0 0 0 0 0 0 0 0 0 0 0 0 53 78 65 105 68 46 65 104 109 108 110 120 123 93 31 25
231 400 369 420 111 43 9 6 0 0 0 3 7 9 4 0 0 0 0 2 0 0 0 0 0 1 4 5 39 44 69 78 70 46 45 69 84 111 88 1 0 0 0
245 379 414 605 407 86 14 13 0 0 0 2 3 10 7 1 2 2 1 2 7 0 0 2 25 13 14 44 48 57 51 59 38 44 74 61 75 50 0 0 0 0 1
239 446 433 615 670 388 113 32 5 0 0 0 1 2 8 4 10 19 8 10 10 16 9 3 21 29 28 30 30 25 22 30 44 38 50 46 17 0 0 0 0 0 0
17 338 472 502 706 688 397 132 40 8 0 0 0 0 5 4 0 3 5 13 17 23 18 17 21 27 38 31 25 32 16 42 54 23 0 1 1 1 1 0 0 0 0
0 12 186 381 579 725 712 387 140 48 19 0 0 30 15 36 28 12 13 20 19 4 9 14 12 28 30 6 12 42 61 12 0 1 1 2 5 3 1 1 1 0 0
0 0 6 154 427 558 782 624 385 143 48 23 9 18 38 40 44 46 43 46 48 52 57 53 19 4 0 1 1 0 0 0 0 1 1 2 1 2 2 2 1 0 0
0 0 3 56 287 592 751 766 655 406 135 53 42 41 70 61 32 33 46 43 41 36 0 0 0 1 1 0 0 0 0 0 2 1 1 1 1 0 0 0 1 1 1
51 20 31 6 11 62 606 725 785 739 446 214 151 90 70 62 49 24 9 0 0 0 0 1 1 1 2 1 1 0 0 0 0 0 0 1 1 0 0 0 0 0 0
17 0 0 0 0 0 0 587 738 663 694 505 320 170 96 34 28 0 0 0 0 0 0 1 1 1 1 1 0 0 0 0 1 1 0 0 1 3 2 0 0 0 0
0 0 0 0 0 0 8 105 597 645 531 391 227 56 0 0 0 0 0 1 0 1 0 1 0 0 1 1 0 0 0 0 1 1 2 2 1 0 0 1 0 0 0
0 0 0 0 0 0 6 42 0 0 0 0 0 0 0 0 0 0 0 0 0 0 0 0 0 0 0 1 0 0 0 0 0 1 1 0 0 0 0 0 0 0 0
0 1 0 0 0 0 0 0 2 1 0 0 0 0 0 0 0 0 0 0 0 0 0 0 1 0 0 1 3 2 1 1 1 1 0 0 0 0 0 0 0 0 0
0 0 0 0 0 0 0 0 1 0 2 1 1 1 1 1 1 0 0 0 0 0 1 1 1 2 1 0 0 0 0 0 0 0 0 0 0 0 0 0 0 0 0
0 0 1 1 0 0 0 0 0 0 0 1 1 0 0 0 0 0 0 0 0 0 1 1 2 1 1 2 2 1 0 0 0 0 0 0 0 0 1 0 0 0 0
1 1 1 1 1 2 1 1 1 0 1 1 1 1 0 0 1 1 0 0 0 0 1 2 1 0 0 1 0 0 0 0 0 4 0 0 0 0 0 0 0 0 0
0 0 0 1 2 3 5 4 3 2 1 1 1 1 0 0 0 0 1 13 5 6 7 6 0 2 1 0 0 0 0 0 0 0 0 0 0 0 0 0 0 0 0

GFSMW_con_sbcape_102.txt.gz
CAPE
23 0 0 0 0 0 0 0 0 0 0 0 0 1 2 1 1 2 6 7 0 0 0 0 0 0 0 0 0 0 0 0 0 0 0 0 0 0 0 0 0 0 0
0 0 0 0 0 0 0 0 0 0 0 0 0 0 1 2 0 1 0 0 0 0 0 0 0 0 0 0 0 0 0 0 0 0 0 0 0 0 0 0 0 0 0
0 0 0 0 0 0 0 0 0 0 1 0 0 1 4 8 1 1 0 0 0 0 0 0 0 0 0 0 0 0 0 0 0 0 0 0 0 0 0 0 0 0 0
0 0 0 0 0 0 0 0 0 0 0 0 2 1 3 18 0 0 0 0 0 0 0 0 0 0 0 0 0 0 0 0 0 0 0 0 0 0 0 0 0 0 0
0 0 0 0 0 0 0 0 0 0 0 0 0 0 1 0 0 2 1 0 0 0 0 1 0 0 0 0 0 0 0 0 0 0 0 0 0 0 0 0 0 0 0
14 0 0 0 0 0 0 0 0 0 0 0 1 0 0 0 0 1 1 1 0 0 0 0 0 0 0 0 0 6 0 0 0 0 0 0 0 0 1 1 0 0 0
26 0 0 0 0 0 0 0 0 0 0 0 1 0 0 0 0 0 0 1 1 0 0 0 0 0 0 0 0 0 14 16 12 1 0 11 1 0 0 0 0 0 0
5 0 0 0 0 0 0 0 0 0 1 0 0 0 0 0 0 0 0 0 0 0 0 0 0 0 0 0 0 9 24 24 9 11 25 17 17 9 6 6 0 0 0
25 5 1 0 0 0 0 0 0 0 2 1 0 0 0 0 0 0 0 0 0 2 0 0 0 0 0 0 2 13 29 17 15 5 7 6 1 3 4 0 0 0 0
58 30 3 0 0 0 0 0 0 0 0 4 0 0 0 0 0 0 0 0 0 1 0 0 0 0 0 0 3 25 39 18 8 1 0 1 2 4 0 0 2 1 16
37 31 19 0 0 0 0 0 0 0 2 3 1 0 0 0 0 0 0 0 0 0 0 0 0 0 0 0 1 15 20 21 14 0 0 2 6 10 0 0 0 0 0
0 20 14 23 0 0 0 0 0 0 0 0 3 0 0 0 0 0 0 0 0 0 0 0 0 0 0 0 0 2 4 2 2 0 0 1 1 0 0 0 0 0 0
0 0 0 12 2 0 0 0 0 0 0 0 4 2 0 0 0 0 0 0 0 0 0 0 0 0 0 0 0 0 0 0 0 0 1 4 0 0 0 0 0 0 0
0 0 0 0 2 1 0 0 0 0 0 0 0 3 1 0 0 0 0 0 0 0 0 0 0 0 0 0 0 0 0 0 0 0 0 0 0 0 0 0 0 0 0
1 0 0 0 0 4 0 0 0 0 0 0 0 0 0 0 0 0 0 0 0 0 0 0 0 0 0 0 0 0 0 0 0 0 0 0 2 1 0 0 0 0 0
0 0 0 0 0 0 0 0 0 0 0 0 0 0 0 0 0 0 0 0 0 0 0 0 0 0 0 1 0 0 0 0 0 0 0 0 1 1 2 2 1 0 0
0 0 0 0 0 0 0 0 0 0 0 0 0 0 0 0 0 0 0 0 0 0 0 1 0 0 0 1 0 0 0 0 0 0 0 0 1 0 0 1 1 1 0
0 0 0 0 0 0 0 0 0 1 0 0 0 0 0 0 0 0 0 0 0 0 0 0 0 0 0 0 0 0 0 0 0 0 0 0 0 0 0 0 0 1 1
0 0 0 0 0 0 0 0 0 0 1 0 0 0 0 0 0 0 0 0 0 0 0 0 0 0 0 0 0 0 0 0 0 0 0 0 0 3 4 0 1 0 0
0 0 0 0 0 0 0 0 0 0 0 0 0 0 0 0 0 1 0 0 0 0 0 0 0 1 0 1 1 0 0 0 0 2 1 1 1 1 0 0 0 1 0
0 0 0 0 0 0 0 0 0 1 2 1 5 4 2 2 3 2 0 0 0 0 0 0 0 0 0 1 2 1 0 0 1 2 3 4 10 7 5 3 2 2 0
0 0 0 0 0 0 0 0 1 0 0 0 2 2 8 5 0 0 1 0 0 0 0 0 1 1 1 2 5 5 3 0 1 3 3 7 11 10 6 2 3 0 0
1 0 0 0 0 0 0 1 1 0 1 0 1 1 1 3 2 0 0 0 1 2 1 0 0 1 1 2 4 5 4 4 1 2 10 12 9 6 6 3 1 0 0
0 0 0 3 2 1 0 0 0 0 1 1 1 0 0 1 0 0 0 0 3 2 0 1 0 0 0 0 0 0 2 10 3 0 0 1 4 1 1 0 0 0 0
0 0 0 1 3 1 1 0 0 0 1 1 1 0 0 0 0 0 0 0 1 0 0 0 0 0 0 0 1 0 0 0 2 0 1 1 3 2 0 0 0 0 0
0 1 1 2 2 2 2 2 1 0 0 1 1 0 0 0 1 6 6 7 2 3 3 1 0 1 5 7 8 5 5 3 0 0 0 0 0 0 0 0 0 0 0

GFSMW_con_sbcape_105.txt.gz
CAPE
0 0 0 0 0 0 0 0 0 0 0 0 1 1 11 1 1 1 2 8 0 0 0 0 0 0 0 0 0 0 0 0 0 0 0 0 0 0 0 0 0 0 0
0 0 0 0 0 0 0 0 0 0 0 0 0 0 1 1 0 1 2 1 0 0 0 0 0 0 0 0 0 0 0 0 0 0 0 0 0 0 0 0 0 0 0
0 0 0 0 0 0 0 0 0 0 0 0 0 0 0 9 1 1 7 3 1 0 0 0 0 0 0 0 0 0 0 0 0 0 0 0 0 0 0 0 0 0 0
0 0 1 0 0 0 0 0 0 0 0 0 0 1 1 11 8 1 1 3 0 0 0 0 0 0 0 0 0 0 0 0 0 0 0 0 0 0 0 0 0 0 0
0 2 0 0 0 0 0 0 0 0 0 0 1 0 13 13 5 1 1 0 2 0 0 0 0 0 0 0 0 0 0 0 0 0 0 0 0 0 0 0 0 0 0
0 0 0 0 0 0 0 0 0 0 0 0 0 1 1 1 8 2 1 1 0 1 0 0 0 0 0 0 0 0 0 0 0 0 0 0 0 0 0 0 0 0 0
0 0 0 0 0 1 0 0 0 0 0 0 0 0 0 0 0 1 1 1 0 1 1 0 0 4 10 21 15 9 8 0 0 0 0 5 0 0 0 0 0 0 0
0 0 0 0 0 0 0 0 0 0 1 0 0 0 0 0 0 0 0 0 0 0 1 1 0 0 0 4 15 26 21 1 4 9 14 0 9 5 1 1 0 0 0
4 0 0 0 0 0 0 0 0 0 0 0 0 0 0 0 0 0 0 0 0 1 0 0 0 0 0 0 0 1 0 5 10 18 12 9 3 1 3 0 0 1 0
0 0 0 0 0 0 0 0 0 0 0 0 0 0 0 0 0 0 0 0 1 1 0 0 0 1 1 1 0 1 0 7 10 28 23 6 1 0 2 0 0 0 17
0 0 0 0 0 0 0 0 0 0 0 0 0 0 0 0 0 0 0 0 0 1 1 0 0 0 0 0 0 0 0 1 4 15 9 6 2 3 0 0 0 1 0
0 0 0 0 0 0 0 0 0 0 0 0 0 0 0 0 0 0 0 0 0 0 0 1 0 0 0 0 0 0 0 4 11 11 1 5 0 0 0 0 0 0 0
0 0 0 0 0 0 0 0 0 0 0 0 0 0 0 0 0 0 0 0 0 0 1 0 0 0 0 0 0 0 0 0 0 0 1 0 0 0 0 0 0 0 0
0 0 0 0 0 0 0 0 0 0 0 0 0 0 0 0 0 0 0 0 0 0 0 0 0 0 0 0 0 0 0 0 0 0 0 0 0 0 0 0 0 0 0
0 0 0 0 0 0 6 3 0 0 0 0 0 0 0 0 0 0 0 0 0 0 0 0 0 0 0 0 0 0 0 0 0 0 0 0 0 0 0 0 0 0 0
0 0 0 0 0 0 0 0 3 0 0 0 0 0 0 0 0 0 0 0 0 0 0 0 0 0 0 0 0 0 0 0 0 0 0 0 1 1 1 1 1 0 0
0 0 0 0 0 0 0 0 0 0 0 0 0 0 0 0 0 0 0 0 0 0 0 0 0 0 0 1 0 0 0 0 0 0 0 0 2 1 0 2 2 2 0
0 0 0 0 0 0 0 0 0 0 0 0 0 0 0 0 0 0 0 0 0 0 0 0 0 1 0 1 1 0 0 0 0 0 0 0 0 1 0 0 0 2 2
0 0 0 0 0 0 0 0 0 1 0 0 0 0 0 0 0 0 0 0 0 1 1 0 0 0 0 0 0 0 0 0 0 0 0 0 1 3 2 0 1 2 4
0 0 0 4 1 0 0 0 0 1 2 0 2 0 0 0 0 0 1 1 0 0 0 0 0 0 0 0 0 0 0 0 0 0 0 1 1 3 1 0 1 2 3
0 0 0 2 1 0 0 0 0 2 2 1 0 0 0 0 0 0 1 0 0 0 0 0 0 0 0 0 2 1 0 0 1 1 1 3 5 7 7 3 1 2 1
0 0 0 2 2 0 0 1 1 1 0 0 0 0 0 0 1 1 0 0 0 0 0 0 1 1 1 4 6 6 3 1 0 2 2 4 8 7 5 2 4 2 0
0 0 0 0 2 1 1 1 1 1 0 0 1 1 0 0 0 1 3 1 0 0 0 0 1 1 1 3 8 4 3 1 1 1 6 11 10 5 5 4 2 0 1
0 0 0 1 3 3 1 1 1 0 0 1 1 1 0 0 0 0 0 0 0 0 0 0 0 0 0 0 1 2 4 6 1 0 0 1 3 0 1 5 3 1 0
0 0 1 2 2 3 3 2 0 0 0 1 1 1 1 0 0 1 1 1 0 0 0 0 0 0 0 0 1 0 0 0 1 0 1 1 1 1 1 1 0 0 0
1 1 1 3 3 1 1 2 2 0 0 1 2 1 1 1 0 0 0 2 0 3 2 1 0 0 7 8 7 9 9 6 1 0 0 0 0 0 0 0 0 0 0

GFSMW_con_sbcape_108.txt.gz
CAPE
0 0 0 0 1 0 0 0 0 0 0 1 1 9 7 4 3 4 2 2 2 8 19 0 0 0 0 0 0 0 0 0 0 0 0 0 0 0 0 0 0 0 0
0 0 0 0 0 0 0 0 0 0 1 0 0 1 1 5 0 1 1 1 3 5 0 0 0 0 0 0 0 0 0 0 0 0 0 0 0 0 0 0 0 0 0
0 0 0 0 0 0 0 0 0 0 0 0 0 0 0 4 1 1 2 4 0 0 0 0 0 0 0 0 0 0 0 0 0 0 0 0 0 0 0 0 0 0 0
0 0 0 0 0 0 0 0 0 0 0 0 0 0 0 7 3 1 5 1 0 0 0 0 0 0 0 0 0 0 0 0 0 0 0 0 0 0 0 0 0 0 0
0 0 0 0 0 0 0 0 0 0 0 0 0 0 0 3 7 0 1 1 1 0 0 0 0 0 0 0 0 0 0 0 0 0 0 0 0 0 0 0 0 0 0
0 0 0 0 0 0 0 0 0 0 0 0 0 0 0 11 8 1 1 4 4 6 0 0 0 0 0 0 0 0 0 0 0 0 0 0 0 0 0 0 0 0 0
0 0 0 0 0 0 0 0 1 0 0 0 0 0 0 11 1 0 0 6 7 5 1 0 0 0 0 0 0 0 0 0 0 0 0 0 1 4 3 0 0 0 0
0 0 0 0 0 0 0 0 1 1 0 0 1 0 0 2 1 0 0 0 3 3 4 0 0 0 0 0 0 0 0 0 0 0 0 1 17 2 4 0 0 0 0
0 0 0 0 0 0 0 0 0 0 1 0 3 0 0 0 0 0 0 0 1 3 2 1 0 0 0 0 11 20 33 24 20 3 8 18 30 20 19 5 0 0 1
0 0 0 0 0 0 0 0 0 0 0 0 0 0 0 0 0 0 0 0 0 1 2 2 5 6 1 0 3 4 7 31 20 19 20 13 12 14 0 0 0 0 4
0 0 0 0 0 0 1 1 0 2 1 0 0 0 0 0 0 0 0 0 0 0 1 1 2 5 6 2 2 0 1 0 0 3 4 9 13 17 2 0 0 0 0
0 0 2 1 1 0 2 3 1 5 1 0 0 0 0 0 0 0 0 0 0 0 1 0 2 1 6 2 1 0 0 1 3 0 0 0 3 4 5 1 2 2 1
0 0 1 5 5 1 0 0 0 0 0 2 0 0 0 0 0 0 0 0 0 0 0 0 0 1 0 0 0 0 0 0 0 0 0 0 0 9 5 0 0 0 0
0 0 0 1 4 6 1 0 0 0 0 0 0 0 0 0 0 0 0 0 0 0 0 0 0 0 0 0 0 0 0 0 0 0 0 0 0 0 0 0 0 0 1
0 0 0 0 0 0 1 0 0 0 0 0 0 0 0 0 0 0 0 0 0 0 0 0 0 0 0 0 0 0 0 0 0 1 0 0 0 0 0 0 0 0 0
0 0 0 0 0 0 0 0 0 0 0 0 0 0 0 0 0 0 0 0 0 0 0 0 0 0 0 0 0 0 0 0 0 0 0 0 1 1 1 1 0 0 0
0 0 0 1 0 0 0 1 0 0 0 0 0 0 0 0 0 0 0 0 0 0 0 0 0 0 0 0 0 0 0 0 0 0 0 0 1 0 0 2 2 2 0
0 0 0 1 0 0 0 0 1 1 0 1 0 0 0 0 0 0 0 0 0 0 0 0 0 0 1 1 1 0 0 0 0 0 0 0 0 0 0 0 0 1 1
0 0 0 0 0 1 0 0 1 0 1 1 1 1 0 0 0 0 0 0 0 0 1 0 1 1 1 1 1 0 0 0 0 0 0 0 0 3 2 0 1 2 4
0 0 0 0 0 0 0 0 1 1 1 2 2 2 2 0 0 0 0 1 0 1 0 0 0 0 0 0 0 0 0 0 0 0 0 1 1 3 1 0 1 3 4
0 0 1 1 1 0 0 1 1 2 3 1 1 1 0 1 0 0 1 0 0 0 0 0 0 0 0 1 1 0 0 0 0 0 1 2 4 4 3 0 0 1 1
0 0 0 2 1 0 0 2 2 1 2 1 0 0 0 0 0 0 0 0 0 0 0 0 1 0 0 1 3 2 1 0 0 0 1 4 6 6 4 2 6 3 0
0 0 0 0 1 1 1 2 2 1 1 1 1 1 1 0 0 0 0 0 0 0 0 0 0 1 1 1 4 5 4 2 0 0 4 9 9 9 7 6 3 0 2
0 0 1 1 2 3 2 2 1 0 0 0 0 0 1 0 0 0 0 0 0 0 0 0 0 0 0 0 1 1 1 5 1 0 0 1 4 0 1 2 3 2 2
1 0 2 3 0 1 2 3 1 0 0 1 1 1 1 1 1 1 0 0 0 3 1 1 0 0 0 0 1 0 0 0 1 0 0 0 0 2 2 2 0 0 0
0 0 0 2 2 0 0 1 2 0 0 1 2 1 1 1 0 0 1 7 2 4 2 1 0 2 7 10 13 11 9 6 3 0 0 0 0 1 1 1 0 0 0

GFSMW_con_sbcape_111.txt.gz
CAPE
0 0 0 0 0 35 95 192 281 151 7 4 3 0 1 8 10 11 5 4 2 5 18 5 1 0 1 0 0 0 0 0 1 2 9 5 3 9 7 14 16 12 9
0 0 0 0 2 4 73 63 137 14 3 2 2 20 32 15 13 17 16 17 2 2 18 3 0 0 0 0 0 0 0 0 0 1 3 3 4 9 10 15 15 11 4
0 0 0 0 1 4 0 9 30 3 4 4 5 0 18 21 26 40 26 6 2 2 4 5 0 0 0 0 0 0 0 0 1 0 0 7 12 3 6 10 5 1 0
0 0 0 0 0 1 0 0 5 2 1 1 3 0 10 15 26 23 24 3 2 2 0 0 0 0 0 0 0 0 0 0 0 0 0 0 0 0 0 0 0 0 0
0 0 0 0 0 1 2 1 10 3 0 0 2 1 17 28 17 14 19 12 4 0 0 0 0 0 0 0 0 0 0 0 0 0 0 0 0 0 0 0 0 0 1
0 0 0 0 0 3 1 4 5 1 0 6 5 8 6 6 20 17 20 1 1 1 1 0 0 0 0 0 0 0 0 0 0 2 0 0 0 5 39 33 4 24 12
0 0 0 0 0 4 3 1 2 3 0 9 13 11 6 3 23 14 4 1 2 2 3 1 2 4 1 0 0 0 0 0 0 0 0 11 43 86 105 150 66 74 34
0 0 0 0 1 1 2 4 1 2 3 9 15 10 14 8 30 4 5 3 4 2 5 2 4 6 0 0 0 0 0 0 0 0 0 28 73 125 126 128 128 129 86
0 0 0 0 2 3 2 4 1 3 3 5 10 4 5 12 15 1 2 7 10 5 7 8 11 2 0 0 0 0 0 0 0 0 21 69 64 111 135 122 141 104 34
0 3 2 1 1 0 2 5 3 2 4 3 0 3 1 8 8 1 2 5 8 3 3 4 0 0 0 0 0 0 0 4 25 35 80 88 88 122 91 97 79 78 49
0 2 7 4 1 0 6 4 0 3 5 2 2 0 0 4 1 1 1 1 2 7 5 3 1 0 0 0 0 2 8 21 34 50 108 68 45 79 55 50 22 30 10
0 0 0 9 5 4 2 3 6 10 6 0 1 0 1 3 8 1 1 2 1 2 7 4 5 3 1 0 0 1 0 0 0 11 16 4 18 15 29 20 20 6 3
0 0 0 0 3 9 5 7 8 5 7 6 8 0 1 0 0 3 1 1 1 1 0 3 4 3 3 4 1 0 0 0 0 0 4 1 0 0 10 5 19 13 2
0 0 0 0 0 2 7 5 7 7 16 16 7 1 3 4 0 0 1 2 2 2 1 0 1 2 2 2 2 3 6 5 0 0 0 0 0 0 0 0 0 0 0
0 0 0 0 0 0 1 2 4 6 11 21 8 4 6 5 1 1 0 1 2 2 1 1 0 0 0 1 4 4 4 6 0 1 1 1 0 0 0 0 1 0 0
2 3 4 2 0 0 0 1 0 0 2 6 8 5 2 4 5 2 0 0 1 2 2 1 1 1 0 0 0 0 0 0 0 0 0 1 1 0 0 0 0 0 0
0 0 1 1 2 1 0 3 5 1 1 4 2 6 2 5 7 4 3 2 1 1 1 0 0 0 0 0 0 0 0 0 0 0 0 0 1 0 0 1 0 0 0
0 0 3 0 0 0 1 1 3 1 1 0 0 1 5 7 5 6 3 5 6 3 1 0 0 0 0 0 0 0 0 0 0 0 0 1 1 1 1 1 1 2 2
0 1 1 0 0 0 0 3 1 1 2 1 0 0 2 1 4 3 1 3 1 4 5 0 0 0 0 1 1 0 0 0 0 0 0 0 1 3 2 1 2 3 7
0 1 0 0 0 0 0 0 0 2 5 4 4 2 1 1 3 1 1 0 0 0 1 1 0 0 0 1 1 0 0 0 0 0 0 0 1 2 1 0 1 3 3
0 0 1 1 1 0 1 1 1 2 3 2 2 1 1 2 1 0 0 0 1 0 0 0 1 1 0 0 0 0 0 0 0 1 2 4 5 4 3 1 0 0 3
0 0 2 2 2 2 3 2 2 0 0 0 1 1 0 1 1 0 0 0 0 0 0 0 0 1 0 0 1 0 0 0 0 1 2 6 7 5 5 3 7 6 2
0 1 1 1 1 2 6 4 2 0 0 0 0 0 0 1 1 0 0 0 0 0 0 0 0 1 1 1 2 2 3 3 0 0 4 8 8 7 7 7 6 1 3
1 1 2 2 2 2 3 3 3 0 0 0 0 1 2 1 1 0 0 0 0 0 1 1 1 2 2 2 3 4 4 5 0 0 0 1 4 0 2 4 4 1 1
0 0 1 3 2 3 4 4 1 1 0 1 1 2 2 2 2 2 1 1 0 0 0 1 1 1 0 1 1 0 0 0 2 0 0 0 2 4 3 1 1 0 0
0 0 3 3 2 1 3 4 4 2 1 2 2 3 2 2 2 2 4 7 4 6 4 2 0 2 5 9 11 9 8 6 3 0 0 3 2 1 0 0 0 0 0

GFSMW_con_sbcape_114.txt.gz
CAPE
0 0 0 0 74 74 133 586 978 1374 576 558 515 661 555 274 295 284 15 6 18 11 35 22 98 69 63 227 147 228 204 180 162 119 80 50 35 32 19 17 17 22 30
0 0 0 0 211 300 420 534 854 1293 356 501 805 559 159 97 30 54 59 32 9 6 8 12 49 16 65 94 55 181 204 172 192 106 73 38 51 44 33 12 15 23 12
0 0 0 0 65 400 585 605 827 1180 853 1068 510 677 494 137 281 181 139 31 12 7 6 5 1 2 7 4 2 129 167 137 181 155 34 17 26 34 29 19 14 12 7
0 0 0 0 11 318 542 501 762 854 863 1040 690 595 396 157 152 175 148 61 93 63 8 9 2 1 2 1 0 1 68 162 125 121 20 8 14 31 30 20 14 6 5
2 63 3 0 0 260 408 147 449 566 789 957 719 455 132 132 104 214 210 207 79 29 23 3 1 1 0 0 0 1 23 74 203 143 26 44 44 58 4 2 5 3 6
19 69 54 0 6 411 76 38 321 241 144 380 427 247 84 42 92 97 163 142 48 22 2 1 1 1 0 0 0 0 2 153 200 172 83 48 39 50 4 3 3 3 33
178 189 153 103 99 280 4 8 239 41 6 28 86 81 52 4 10 14 65 51 6 2 1 1 1 1 2 1 0 0 2 99 191 165 133 24 42 0 1 10 17 18 74
395 304 222 325 166 3 6 9 81 1 4 99 72 60 12 10 18 70 42 15 4 1 1 0 1 0 1 0 0 0 0 19 132 231 138 64 51 60 57 61 125 172 131
529 438 277 238 139 5 1 8 7 1 3 184 168 31 10 15 15 68 30 2 5 1 2 4 4 3 2 2 2 2 3 10 54 202 274 153 110 203 126 137 145 144 119
268 194 149 17 7 4 8 12 10 7 0 39 12 10 4 19 22 59 11 2 5 4 4 9 9 6 4 2 7 14 17 57 52 16 14 20 65 126 175 205 182 146 125
181 60 8 13 12 5 7 13 9 10 9 2 8 9 8 16 21 34 19 6 5 5 5 11 7 5 13 9 7 5 0 3 1 0 35 85 70 124 153 207 217 150 109
38 2 6 0 1 8 9 9 5 11 11 15 10 2 13 25 19 18 6 7 3 4 5 5 7 6 10 3 5 9 0 0 0 28 22 38 48 112 133 170 164 177 140
2 0 0 0 0 0 7 7 7 9 10 7 3 5 13 15 17 31 18 7 6 8 3 1 1 4 8 0 0 0 0 0 0 0 1 21 52 84 87 104 79 70 12
20 0 0 0 0 0 0 2 6 11 9 6 8 15 18 30 17 35 20 11 7 2 6 4 2 2 1 0 0 0 0 0 0 1 0 0 3 15 19 0 14 5 5
29 1 1 5 3 0 0 0 2 2 1 19 20 23 33 28 9 22 25 25 14 8 4 8 5 3 2 2 1 0 0 3 0 0 0 0 1 1 0 0 0 0 0
0 1 0 0 0 4 0 0 1 4 2 0 23 27 15 2 18 21 10 10 23 32 33 13 1 0 0 0 0 1 1 1 0 1 0 0 0 0 0 0 0 1 0
0 0 0 0 0 0 5 5 1 2 4 0 1 12 1 4 4 16 11 11 7 14 12 9 7 7 1 1 2 0 1 0 0 0 0 0 0 0 0 1 0 0 0
1 0 0 0 0 0 0 1 0 1 1 1 0 0 0 7 9 7 7 19 20 10 7 9 10 7 3 2 2 1 0 0 0 0 0 0 0 0 2 2 1 2 2
1 1 0 0 0 0 2 1 0 0 0 1 1 1 1 0 0 13 13 16 24 17 12 4 4 4 7 1 1 0 0 0 0 0 0 0 1 1 0 1 4 6 7
0 0 0 0 0 0 2 0 2 1 1 2 3 1 1 0 0 0 10 5 17 11 0 0 0 0 0 1 1 0 0 1 2 1 1 0 1 2 0 0 0 1 3
0 0 0 0 0 1 1 1 2 1 1 2 1 1 0 1 1 1 0 0 0 0 0 0 1 0 0 0 0 0 0 0 1 2 3 4 4 4 3 0 0 1 3
0 0 0 0 0 0 1 2 2 0 1 1 0 1 1 1 1 2 0 0 0 0 0 0 1 0 0 0 1 0 0 0 1 2 4 7 9 7 3 2 5 5 2
0 0 0 0 0 0 1 2 5 1 1 1 2 2 2 1 1 1 1 0 0 0 0 1 1 1 1 1 1 2 1 2 1 1 6 13 12 11 9 11 7 2 6
0 0 0 0 0 0 2 3 4 4 1 2 2 3 4 4 2 1 1 1 1 0 0 1 2 2 1 2 1 3 3 6 1 0 0 1 4 1 2 4 7 5 6
0 0 1 1 0 1 1 2 4 2 2 3 3 4 7 6 6 6 5 3 1 0 1 1 1 1 0 1 0 0 0 0 1 0 0 0 0 1 2 3 3 2 1
1 2 2 3 2 1 2 4 5 3 2 3 4 6 7 8 7 6 6 8 6 5 2 1 0 2 5 8 9 11 10 8 5 0 1 3 4 4 1 2 2 4 1

GFSMW_con_sbcape_117.txt.gz
CAPE
0 0 0 0 0 0 41 110 466 1699 2304 2060 1987 1269 1049 720 723 677 579 699 874 537 645 566 549 149 111 83 68 58 55 55 227 125 110 107 82 103 14 11 16 28 18
0 0 0 0 0 0 256 316 664 1310 1935 1472 1092 1212 1314 1128 1059 678 581 368 295 366 278 384 207 25 65 78 11 48 23 42 234 123 102 85 59 36 16 12 17 60 13
0 0 0 0 0 30 425 488 736 1059 1665 799 1015 1318 1126 834 478 329 399 444 146 58 20 16 61 31 19 10 18 49 13 33 109 172 64 66 36 46 31 23 18 45 27
0 0 0 0 0 4 330 637 738 975 1498 999 1246 1473 1045 670 660 558 522 343 281 95 12 4 7 10 7 29 12 39 66 69 125 167 126 128 62 18 37 30 18 24 18
0 0 0 0 0 2 406 889 916 1049 1343 1383 1382 1457 1380 940 640 464 538 369 293 173 44 8 3 5 3 2 7 0 64 59 145 158 146 156 132 99 20 24 20 8 9
0 2 29 176 3 541 869 950 901 1162 1306 1417 1559 1431 1324 916 636 502 460 506 405 405 122 44 7 0 1 1 0 1 35 57 84 175 221 174 146 103 172 90 57 8 10
124 164 228 327 61 467 777 193 454 877 993 1254 1526 1318 1107 765 590 510 406 411 388 230 166 38 7 2 1 0 1 0 9 18 23 43 122 241 206 210 189 138 81 33 50
473 417 546 651 503 550 501 2 173 530 267 856 1305 976 815 614 372 255 191 142 273 100 15 23 2 1 1 1 1 2 2 5 5 29 101 213 222 174 153 73 142 24 92
643 658 693 605 455 154 7 1 100 154 15 336 866 601 544 326 182 103 239 261 101 16 22 2 1 1 0 0 2 1 5 2 10 22 48 82 218 295 224 173 250 67 111
600 523 432 225 48 0 4 3 13 26 16 326 530 407 339 270 122 185 237 118 8 4 4 2 2 1 1 1 1 1 2 3 8 60 75 88 199 208 325 322 183 243 180
597 280 10 5 3 9 7 7 10 11 9 202 346 385 175 149 65 244 177 37 4 6 5 4 7 4 1 2 2 2 2 1 7 37 84 120 135 137 184 230 166 180 178
248 67 3 1 1 0 8 10 8 16 15 1 7 138 19 14 96 110 108 17 4 5 2 5 11 4 2 2 2 6 7 4 13 30 70 136 116 205 149 127 155 174 120
98 20 2 1 1 0 0 1 8 10 3 7 6 6 11 19 70 29 18 8 3 3 3 7 7 4 3 3 2 2 4 7 8 23 120 95 113 115 136 116 109 140 94
105 13 1 2 3 1 0 0 0 1 9 13 14 9 15 13 14 135 29 21 4 4 3 3 5 8 3 3 2 2 0 29 64 77 60 47 38 9 17 31 89 103 93
25 6 2 2 0 2 2 0 0 0 1 1 14 18 31 28 50 70 29 33 17 6 3 4 1 0 1 6 1 3 1 14 1 0 0 0 0 7 24 8 12 20 4
19 2 0 0 0 0 2 3 2 2 0 0 1 45 33 46 37 42 97 35 34 25 8 4 4 1 0 0 0 0 0 0 0 0 1 0 0 1 1 1 1 1 0
7 1 0 0 0 1 2 3 4 2 0 0 0 1 17 23 19 43 33 35 45 45 42 20 5 2 1 0 0 0 0 0 0 0 0 0 0 0 0 0 0 0 0
4 0 0 0 0 0 1 2 2 4 1 0 0 2 2 0 2 6 37 34 45 43 29 45 23 6 2 2 1 1 0 0 0 0 0 0 0 0 0 0 0 1 1
2 0 0 0 0 0 0 0 0 2 2 1 2 1 4 1 0 0 16 26 34 46 36 23 8 12 0 2 1 0 1 1 1 0 0 0 0 1 1 0 0 1 4
0 0 0 0 0 0 0 0 0 0 4 2 2 2 3 1 1 1 0 0 38 44 39 1 0 1 0 1 1 0 0 0 0 0 0 0 0 0 0 0 0 2 4
0 0 0 0 0 0 0 0 0 0 1 3 1 1 1 1 4 3 2 0 0 0 0 0 0 1 0 0 0 0 0 0 0 0 1 1 0 1 1 0 0 0 1
0 0 0 0 0 0 0 0 0 0 0 0 1 1 2 2 1 3 3 1 0 0 0 0 0 1 0 0 0 0 0 0 0 1 1 3 6 6 3 1 5 4 0
0 0 0 0 0 0 0 0 3 2 1 1 2 2 1 2 2 1 1 0 0 0 1 0 0 1 2 1 2 2 2 2 1 1 5 10 12 10 8 11 6 1 0
0 0 0 0 0 0 0 1 4 4 2 2 2 4 1 3 3 2 1 1 0 0 1 2 0 1 0 1 2 3 3 6 1 0 2 2 1 0 0 0 2 1 0
0 1 2 0 0 1 1 3 5 5 3 4 6 5 5 6 3 3 2 2 1 0 1 1 0 0 0 0 1 0 0 0 0 0 0 0 0 0 0 1 0 2 2
3 3 3 2 2 2 4 6 7 7 5 4 6 7 6 6 7 5 5 9 3 2 1 1 0 2 5 6 6 7 10 8 5 0 1 0 6 2 4 6 5 2 3

GFSMW_con_sbcape_120.txt.gz
CAPE
0 1 0 0 0 0 239 247 1208 1833 2296 2364 2170 1829 1653 1304 1116 1036 939 730 970 810 690 458 299 250 197 57 7 15 10 0 0 11 24 35 30 38 0 7 0 0 0
0 3 6 15 14 2 132 370 306 1701 2010 2269 2108 1730 1573 758 578 578 527 517 727 705 508 438 257 196 175 31 1 0 2 0 4 14 21 33 32 44 12 9 11 1 0
0 0 0 0 23 55 555 342 362 769 1674 2130 1652 1083 809 798 688 764 588 437 347 520 320 367 155 83 8 2 1 0 9 4 5 1 0 17 8 10 35 6 1 18 0
0 0 0 0 0 3 518 557 453 631 1419 1660 1134 1086 915 1014 775 503 337 362 237 206 202 158 102 25 4 5 1 1 0 1 0 11 23 34 9 0 8 6 8 20 4
0 0 0 0 0 2 425 513 643 747 1559 1229 893 939 1099 944 598 558 244 230 264 158 19 32 28 27 8 4 2 1 0 0 0 2 5 41 64 0 2 0 5 14 3
15 8 1 8 41 1195 1037 1302 1073 859 1271 1139 1176 1060 1297 969 743 717 590 377 254 226 78 2 4 4 4 5 1 11 1 2 1 17 13 25 55 8 0 0 0 0 0
150 142 167 323 249 1052 1439 1168 951 946 1376 1428 1229 1271 1292 1422 999 607 557 478 427 325 185 5 7 2 0 0 3 1 7 15 3 30 32 37 90 48 31 7 0 0 0
504 597 729 753 746 1080 999 216 115 389 1176 1307 1276 1246 1001 1207 855 715 470 411 310 270 310 1 1 1 1 1 0 1 2 13 4 28 40 57 82 91 46 67 13 0 0
585 793 689 532 279 250 215 103 3 134 395 481 697 922 790 638 576 465 307 320 252 249 3 6 7 2 1 2 1 0 3 2 5 10 8 8 40 133 139 107 49 9 16
639 476 225 59 6 1 3 5 5 120 60 110 220 526 388 387 327 270 243 279 246 3 1 0 0 2 1 1 1 1 1 2 4 2 0 9 3 68 130 163 182 24 52
434 112 13 0 0 0 1 11 4 5 21 3 104 338 249 233 127 134 294 109 10 3 0 0 1 1 0 1 1 1 1 5 14 0 3 1 11 1 71 100 144 110 47
172 1 3 3 0 0 0 0 3 16 18 2 6 100 112 49 31 59 252 95 4 0 0 0 1 1 1 1 1 1 1 7 9 1 1 0 14 17 36 65 92 89 45
35 0 0 1 0 0 0 0 1 0 2 1 0 0 0 0 22 60 151 9 0 1 0 0 1 2 2 2 1 0 1 9 2 3 2 1 9 20 28 25 40 37 25
19 2 0 0 0 2 2 2 1 1 0 0 1 0 0 0 1 69 49 2 0 0 0 0 1 1 1 3 3 9 12 11 7 5 3 19 28 26 23 19 36 15 10
44 2 1 0 0 0 1 1 3 1 0 0 0 1 6 10 8 32 47 5 1 0 1 1 1 1 1 3 2 0 1 0 1 1 0 1 6 27 25 0 19 12 9
0 3 0 0 0 0 1 1 2 3 0 0 0 0 0 16 36 35 35 17 7 1 1 1 0 0 0 0 0 0 0 0 0 1 0 0 0 2 1 2 2 1 0
0 2 0 0 0 1 0 1 2 1 2 0 0 0 0 0 0 21 43 25 18 5 1 1 0 0 0 0 0 0 0 0 0 0 1 1 1 1 0 0 0 0 0
0 0 0 0 0 0 0 0 1 1 1 3 1 0 0 0 0 0 1 35 19 15 1 1 1 0 0 0 0 0 0 0 0 0 0 0 1 0 0 0 0 0 0
1 0 0 0 0 0 0 0 0 1 2 2 3 3 1 0 1 0 1 0 38 21 5 2 0 0 0 1 1 1 0 1 1 1 1 0 0 0 1 0 0 0 1
0 0 0 0 0 0 0 0 0 0 0 1 5 5 2 1 1 3 1 1 0 15 0 0 0 1 1 1 1 0 0 0 0 0 0 0 0 0 0 0 0 0 1
0 0 0 0 0 0 0 0 0 0 2 0 1 3 3 2 1 2 4 1 0 0 0 0 0 0 0 0 1 1 0 0 0 0 0 0 1 1 1 0 0 0 0
0 0 0 0 0 0 0 0 0 1 1 1 1 2 1 1 2 1 0 0 0 0 0 0 0 0 0 0 0 0 0 0 0 0 1 2 4 3 2 0 4 2 0
0 0 0 0 0 0 0 0 0 0 1 2 3 3 3 2 0 0 0 0 0 0 0 0 0 0 0 0 2 2 2 1 0 0 4 9 7 7 4 6 4 0 0
0 0 0 0 0 0 1 2 4 2 1 3 3 3 3 2 1 0 0 0 0 0 0 0 0 0 0 0 0 0 1 6 1 0 0 0 0 0 0 0 0 1 0
0 0 0 0 0 1 3 4 2 4 1 2 3 2 3 3 3 2 0 1 0 0 0 0 0 0 0 0 0 0 0 0 0 0 0 0 0 0 0 0 0 0 0
3 2 3 2 2 3 7 6 5 4 2 2 2 3 3 3 2 1 1 11 7 4 3 2 0 1 5 7 6 7 7 5 3 0 0 0 0 0 0 0 0 0 0

GFSMW_con_sbcape_123.txt.gz
CAPE
0 0 0 0 0 0 0 1204 1666 1870 2085 1693 1425 1281 1186 945 708 899 729 607 708 511 330 199 28 90 77 0 0 0 0 0 2 17 18 5 0 0 0 0 0 0 0
0 0 0 0 0 0 0 144 1195 1831 2114 2072 1776 1564 1262 915 774 1036 889 733 714 443 256 172 59 111 77 0 0 0 0 0 0 0 2 12 1 2 0 0 0 0 0
0 0 0 0 0 0 0 110 853 1788 1959 2008 1539 777 383 461 452 532 484 434 427 350 205 87 40 44 106 13 0 0 0 0 0 0 0 0 1 1 0 0 0 0 0
0 0 0 0 0 0 0 0 205 1458 1667 1723 1582 1139 1128 745 534 522 485 374 316 386 195 48 24 1 40 43 12 0 0 0 0 0 2 0 0 0 0 0 0 2 1
0 0 0 0 0 0 21 0 0 732 1251 1593 1471 960 926 750 538 538 439 361 176 100 88 56 52 28 16 6 16 1 0 0 0 0 1 0 0 0 1 0 0 0 0
0 0 0 3 143 2 1 9 40 300 1241 1049 993 1063 923 511 413 347 197 136 120 85 12 24 28 19 0 0 0 2 0 0 0 0 3 0 0 0 0 0 0 0 0
7 101 209 220 500 209 45 53 129 1007 671 588 704 676 428 523 361 229 175 41 57 175 37 5 7 4 7 4 1 3 1 0 0 0 0 0 1 0 1 3 0 0 0
665 418 202 117 41 54 2 1 0 11 726 601 773 659 564 639 572 447 178 146 115 136 82 11 0 0 0 1 4 3 1 0 0 0 3 0 2 0 18 2 0 0 0
422 181 64 6 0 0 0 0 0 0 159 477 879 889 709 762 583 348 138 205 110 115 115 49 11 0 0 1 5 4 4 4 1 1 0 2 0 18 27 8 1 0 0
141 12 0 0 0 0 0 0 0 0 0 39 270 486 483 377 185 57 6 39 56 24 10 23 14 1 1 1 1 3 13 20 15 1 1 5 8 26 19 9 16 1 0
83 14 0 0 0 0 0 0 0 0 2 0 4 181 183 144 65 14 5 5 0 0 0 0 0 0 0 1 2 2 1 1 8 2 2 2 6 36 25 8 16 6 2
7 0 0 0 0 0 0 0 0 0 0 0 3 53 193 97 4 6 21 0 0 0 0 0 0 0 0 0 1 3 1 1 12 2 5 8 11 9 18 0 25 23 6
0 0 0 0 0 0 1 0 1 1 0 0 3 0 0 1 0 0 13 0 0 0 0 0 0 1 1 1 1 1 1 1 3 3 3 7 0 8 0 4 5 18 0
0 0 0 0 0 0 0 2 1 1 0 0 1 1 0 0 0 0 0 0 0 0 0 0 0 0 0 2 5 5 3 9 9 12 23 3 4 0 1 2 2 0 0
0 0 0 0 0 0 0 0 0 2 1 0 0 0 0 0 0 0 0 0 0 0 0 0 0 0 0 1 3 5 7 7 1 1 0 0 0 0 0 4 0 0 0
0 0 0 0 0 0 0 0 0 0 1 2 1 0 0 0 0 0 11 0 0 0 0 0 0 0 0 0 0 0 0 0 0 1 1 0 1 1 0 0 0 0 0
0 0 0 0 0 0 0 0 0 0 0 1 2 2 0 0 0 0 0 12 1 1 1 0 0 0 0 0 0 0 0 0 1 1 1 1 0 1 0 0 0 0 0
0 0 0 0 0 0 0 0 0 0 1 2 2 2 3 0 0 0 0 0 2 0 0 0 0 0 0 0 0 1 0 0 0 0 0 0 1 0 0 0 0 0 0
0 0 0 0 0 0 0 0 0 0 0 2 2 4 3 2 0 0 0 1 1 1 0 0 0 0 0 0 2 1 1 1 1 1 1 0 1 0 0 0 0 0 0
0 0 0 0 0 0 0 0 0 0 1 2 3 2 3 3 2 1 0 1 0 1 0 0 0 1 1 1 1 0 0 0 0 0 0 0 0 0 0 0 0 0 0
0 0 0 0 0 0 0 0 0 1 1 1 1 1 2 2 3 2 1 1 0 0 0 0 0 0 0 0 1 1 0 0 0 0 0 0 0 0 0 0 0 0 0
0 0 0 0 0 0 0 0 1 0 1 0 1 2 1 1 1 1 0 0 0 0 0 0 0 0 0 0 0 0 0 0 0 0 0 1 2 2 1 0 3 1 0
0 0 0 0 0 0 0 0 3 0 1 1 2 2 1 1 0 1 1 0 0 0 0 0 1 0 1 0 2 1 1 1 0 0 3 6 4 4 2 4 2 0 0
0 0 0 0 1 0 1 2 2 1 0 2 2 2 1 1 1 0 1 0 0 0 0 0 0 0 0 0 0 0 1 3 1 0 0 0 0 0 0 0 0 0 0
1 1 1 2 1 3 2 3 4 3 1 2 2 2 2 1 1 2 2 1 0 0 0 0 0 0 0 0 1 0 0 0 0 0 0 0 0 0 0 0 0 0 0
2 1 1 4 3 1 2 3 4 3 1 2 2 3 3 2 1 0 1 13 7 8 4 2 0 2 6 7 6 7 7 5 2 0 0 0 0 0 0 0 0 0 0

GFSMW_con_sbcape_126.txt.gz
CAPE
0 0 0 0 0 0 0 1111 1535 1850 2130 1799 1375 1129 1169 886 909 755 787 757 547 294 146 15 0 14 11 0 0 0 0 0 4 19 1 0 0 0 0 0 0 0 0
0 0 0 0 0 0 0 518 1416 1685 2174 1967 1784 1521 1315 921 995 746 590 661 628 457 391 205 33 0 7 0 0 0 0 0 2 0 10 3 1 0 0 0 0 0 0
0 0 0 0 0 0 0 0 1250 1712 2213 2048 1608 777 414 307 605 861 805 736 770 639 524 267 81 63 72 11 0 0 0 0 0 0 1 0 0 0 0 0 0 0 0
0 0 0 0 0 0 0 0 1101 1705 2170 1914 1563 1318 1433 1168 1121 1025 993 593 586 567 423 229 122 127 123 17 0 0 0 0 1 0 0 0 0 0 0 0 0 0 0
0 0 0 0 0 0 0 204 1220 1779 2032 1979 1666 1405 1387 1201 707 613 401 573 443 431 285 197 62 51 143 96 0 1 0 0 0 0 0 0 0 0 0 0 0 0 0
0 0 0 0 0 0 0 25 1186 1699 1795 1975 1728 1546 1206 683 462 533 463 414 338 238 194 164 124 68 102 109 14 0 0 1 0 0 0 0 0 0 0 0 0 0 0
0 0 9 188 110 30 73 197 548 697 1398 1608 1581 1449 989 644 548 457 389 254 150 120 97 110 80 76 79 44 17 1 2 2 0 0 0 1 0 0 0 0 0 0 0
327 71 37 57 45 27 11 33 75 636 565 598 945 966 655 537 434 341 177 136 160 116 38 21 33 33 19 11 8 5 7 1 0 0 0 0 0 0 0 0 0 0 0
90 23 10 0 0 0 0 0 8 61 288 512 458 221 156 242 274 143 67 35 35 79 36 13 3 0 3 6 7 6 3 0 2 1 0 0 0 0 0 0 0 0 4
23 1 1 0 0 1 0 0 0 4 13 109 370 570 337 296 255 154 168 164 94 102 59 3 0 0 0 1 1 4 2 12 4 14 1 0 1 0 0 0 0 0 7
6 3 2 2 1 0 0 0 0 0 0 6 24 167 120 77 89 23 86 159 57 10 38 18 9 1 0 0 0 6 12 19 20 19 14 0 1 1 1 0 0 0 0
3 3 1 1 0 1 0 0 0 0 0 0 0 0 119 30 0 0 0 0 0 0 0 0 0 0 0 0 1 3 9 3 5 29 23 3 1 1 0 2 3 0 0
2 1 0 1 1 1 2 1 1 0 0 0 0 0 0 46 1 0 0 0 0 0 0 0 0 0 0 0 0 0 0 1 1 5 3 4 3 2 2 10 0 0 0
0 0 0 1 1 2 2 1 1 1 0 0 0 0 0 0 0 0 0 0 0 0 0 0 0 0 0 0 0 0 1 1 2 3 3 9 3 2 1 1 0 1 0
14 2 1 0 0 1 1 0 0 0 0 0 1 1 1 1 0 0 0 0 0 0 0 0 0 0 0 0 1 1 3 7 6 3 6 13 9 11 3 0 0 0 0
15 2 5 0 1 1 0 0 0 0 0 1 1 1 1 0 2 0 0 0 0 0 0 0 0 0 0 0 0 0 3 1 0 0 1 1 1 0 1 0 0 0 0
1 0 0 0 1 0 0 0 0 0 0 1 1 1 1 1 0 0 1 1 0 0 0 0 0 0 0 0 0 1 0 0 0 1 1 1 1 0 0 0 1 1 2
1 0 0 0 0 0 0 0 0 0 0 0 0 1 1 1 1 0 0 0 1 1 0 0 0 0 0 0 0 2 0 0 0 0 0 0 1 0 0 0 0 0 0
0 0 0 0 0 0 0 0 0 0 0 1 1 1 1 1 1 1 1 1 0 4 1 0 0 0 0 0 2 1 1 1 1 1 1 0 0 0 0 0 0 0 0
0 0 0 0 0 0 0 0 0 0 2 3 2 0 0 1 1 1 2 2 1 1 1 1 1 1 1 1 1 1 0 1 0 0 0 0 0 0 0 0 0 0 0
0 0 0 0 0 0 0 0 0 2 2 1 1 1 0 0 1 1 1 1 1 0 0 0 0 0 0 0 1 1 0 0 0 0 0 0 0 0 0 0 0 0 0
0 0 0 0 0 0 1 4 1 1 1 1 1 1 1 2 1 0 0 0 0 0 0 0 0 0 0 0 0 0 0 0 0 0 0 0 1 1 0 0 1 1 0
0 0 0 1 0 1 3 4 3 0 1 1 1 2 1 1 1 0 0 1 0 0 0 0 0 0 0 0 3 2 1 1 0 0 2 4 3 3 1 3 1 0 0
1 1 1 1 3 2 3 4 3 0 0 1 1 1 2 1 1 0 0 0 0 0 0 0 0 0 0 0 0 0 0 2 0 0 0 0 1 0 0 0 0 0 0
2 2 3 3 1 2 2 3 3 1 0 1 2 2 2 2 1 2 1 1 1 1 0 0 0 0 0 1 0 0 0 0 0 0 0 0 0 0 0 0 0 0 0
1 0 0 0 0 0 2 3 3 2 0 1 2 1 3 1 1 0 0 12 5 7 7 5 0 2 6 6 6 7 5 3 1 0 0 0 0 0 0 0 0 0 0

GFSMW_con_sbcape_132.txt.gz
CAPE
0 0 0 0 0 0 0 0 1556 1913 1795 1693 1475 1137 905 727 748 706 524 460 397 224 42 7 0 14 22 0 0 0 0 1 0 0 1 0 0 1 1 1 3 0 0
0 0 0 0 0 0 0 0 906 1911 2035 2022 1797 1603 1351 1072 972 863 698 526 530 260 213 56 2 23 32 1 0 0 0 0 0 0 0 1 1 1 1 1 1 0 0
0 0 0 0 0 0 0 0 0 1509 2111 2150 1986 1573 1647 1281 1055 956 906 682 560 363 371 115 26 56 58 19 0 0 0 0 1 0 0 2 5 0 1 1 1 0 0
0 0 0 0 0 0 0 0 0 111 1785 2113 2081 1819 1733 1576 1390 1240 1130 956 691 508 474 156 59 125 77 39 2 0 0 0 0 0 0 0 0 0 1 2 1 1 0
0 0 0 0 0 0 0 0 0 0 725 2035 2084 1845 1730 1626 1508 1412 1291 1056 916 737 528 230 222 254 154 55 2 0 0 0 0 3 3 0 0 0 0 2 4 1 1
0 0 0 0 0 0 0 0 0 0 604 1897 2084 1915 1781 1606 1343 1462 1323 985 882 902 725 566 371 277 222 136 15 0 0 0 0 0 4 5 0 0 0 0 0 0 1
211 45 58 0 0 0 0 0 0 1 784 1796 2148 1965 1804 1562 1425 1496 1314 1006 1072 1133 938 630 385 287 223 167 49 13 0 0 0 0 0 0 0 0 0 0 0 0 0
286 256 132 101 99 187 351 424 639 785 1196 2012 2212 2010 1795 1500 1432 1381 1388 1150 1076 1132 941 608 427 334 278 199 73 28 6 0 0 0 0 0 0 1 0 0 0 0 0
84 13 9 5 2 8 167 901 1173 1438 2169 2279 2061 1792 1408 1294 1214 1115 918 1048 877 779 636 509 370 226 191 184 102 74 13 0 0 1 1 3 8 6 3 0 0 0 0
9 6 11 9 5 2 3 0 11 142 327 859 1363 1255 1217 878 741 655 579 636 656 408 378 388 295 162 105 103 75 75 24 13 2 2 2 12 6 4 5 0 0 0 0
14 6 4 16 11 2 1 1 1 1 3 27 251 420 335 207 145 194 163 213 185 132 144 182 125 52 25 18 16 15 11 18 13 8 15 5 13 2 5 0 0 0 0
7 9 8 25 19 5 6 3 2 1 1 2 2 1 10 138 150 66 34 26 40 28 27 10 4 0 0 0 0 0 0 10 16 17 11 24 11 4 7 2 0 0 0
7 10 5 10 9 2 2 2 1 2 3 2 3 4 1 0 4 53 66 63 50 28 2 0 0 0 0 0 0 0 0 11 15 6 6 6 5 4 5 7 2 0 0
4 5 3 3 5 6 2 2 1 1 1 0 1 4 4 5 4 2 20 47 26 4 0 0 0 0 0 0 0 0 0 0 1 1 2 8 7 21 9 3 4 1 0
10 4 3 2 1 2 2 2 1 2 1 1 0 1 0 0 0 0 1 0 0 1 0 0 0 0 0 0 0 0 0 0 0 0 0 0 0 0 0 0 2 5 6
9 6 11 7 3 2 2 2 2 1 1 1 1 1 0 0 1 1 0 1 1 0 0 0 0 0 0 0 0 0 0 0 0 0 0 0 0 0 2 1 1 0 8
5 9 10 8 7 3 2 1 1 1 1 0 0 1 0 1 1 2 0 2 2 1 1 0 0 0 0 1 2 1 0 0 0 0 0 0 0 1 1 0 1 1 1
0 1 4 2 2 2 2 0 0 0 1 1 1 0 1 0 0 0 1 1 2 1 2 1 0 0 0 0 2 2 0 0 0 1 0 0 0 0 1 0 0 0 0
0 1 1 1 1 2 3 0 0 1 1 2 2 1 1 1 1 1 1 2 2 2 2 2 0 1 0 0 1 1 1 1 1 1 0 0 1 0 0 0 0 0 0
1 0 1 0 0 1 2 1 1 2 2 2 3 2 2 2 2 1 1 1 2 1 1 0 1 1 0 0 0 0 1 1 1 0 0 0 0 0 0 0 0 0 0
1 0 0 1 2 2 3 2 1 2 3 1 1 2 1 2 2 1 0 1 1 0 0 0 0 0 0 0 0 1 1 0 1 0 0 0 0 0 0 0 0 0 0
0 0 0 0 0 2 4 3 3 1 1 0 0 1 1 2 2 1 0 0 1 0 0 0 0 0 0 1 2 0 1 0 0 0 0 0 1 0 0 0 0 0 0
0 0 0 0 0 1 4 4 4 1 0 0 0 0 1 1 1 1 1 1 0 0 0 0 0 0 0 0 1 1 0 0 0 0 1 3 4 2 0 1 0 0 0
0 0 0 0 0 1 4 4 2 2 0 0 1 0 1 1 1 0 1 1 1 1 1 1 0 0 0 0 0 0 0 0 0 0 0 0 0 0 0 0 0 0 0
0 0 0 0 0 0 3 4 1 1 1 0 1 1 1 1 0 3 4 2 1 1 0 0 0 0 1 3 1 0 0 0 0 0 0 0 0 0 0 0 0 0 0
0 0 0 0 0 0 0 0 0 0 1 1 1 1 1 0 0 0 0 3 3 7 7 6 0 1 5 5 6 4 3 1 0 0 0 0 0 0 0 0 0 0 0

GFSMW_con_sbcape_135.txt.gz
CAPE
0 0 0 0 0 0 0 0 0 170 1902 1882 1410 1209 1177 1295 1295 1049 956 689 583 483 462 427 184 40 2 0 87 231 197 19 67 5 7 8 26 70 179 109 61 4 6
0 0 0 0 0 0 0 0 0 0 1580 1800 1829 1721 1634 1371 1328 1223 868 772 636 532 475 640 394 100 119 72 67 178 73 41 5 30 9 10 7 8 37 93 45 10 3
0 0 0 0 0 0 0 0 0 0 1222 1873 1923 1990 1829 1786 1469 1145 898 895 816 656 487 493 344 239 235 72 66 351 244 88 2 52 0 15 11 12 14 13 13 30 7
0 9 17 40 0 0 0 0 0 0 711 2303 2263 1982 1856 1819 1613 1421 1324 1122 876 753 589 417 542 369 264 139 40 264 329 211 26 55 24 0 0 9 6 13 13 7 36
29 3 192 34 0 0 0 0 0 0 26 2265 2572 2382 2467 2389 2279 1782 1566 1172 851 782 581 473 466 521 360 310 90 59 272 295 199 56 59 8 0 0 0 2 9 17 9
57 117 33 285 66 0 0 0 0 0 0 2117 2731 2725 2669 2527 2409 2016 1716 1200 966 807 568 498 477 630 475 378 221 134 187 415 361 219 170 121 27 2 1 1 7 3 10
39 51 16 11 82 357 0 0 0 0 0 1697 2649 2870 2804 2745 2462 2139 1954 1371 1222 935 693 530 486 853 928 576 177 103 271 525 622 404 499 286 282 172 14 22 8 10 13
20 32 10 20 13 11 374 0 0 0 44 1515 2690 2966 2949 2604 2459 2278 2217 1702 1328 1336 1010 637 751 875 737 503 226 94 151 476 467 402 166 282 369 290 172 62 57 0 2
25 22 6 10 15 8 5 325 650 75 322 1567 2789 2937 2882 2414 2403 2354 2375 1744 1474 1173 1053 759 751 724 682 635 438 179 109 63 38 34 17 15 156 347 341 242 124 102 3
23 10 17 14 14 14 4 2 2 89 511 1709 2672 2812 2644 2198 2077 2128 2111 1848 1555 1017 965 767 659 574 606 555 240 223 136 75 51 31 25 10 48 95 113 288 156 139 29
9 14 15 11 7 9 6 3 4 4 2 2 624 1984 1749 1762 1780 1762 1744 1720 1161 719 659 537 482 387 344 286 212 145 70 45 27 21 20 9 18 53 45 35 44 31 11
9 9 7 3 12 7 9 5 5 5 3 1 2 3 22 244 628 585 285 323 348 162 217 218 237 262 258 249 145 53 20 34 14 9 18 24 38 51 50 62 28 8 2
12 9 1 1 1 15 11 6 5 6 3 0 3 5 3 3 3 64 467 240 173 61 11 58 55 86 85 102 47 10 4 4 14 29 22 64 55 52 52 35 39 4 1
10 8 5 2 1 6 6 4 4 4 3 1 2 3 3 2 2 2 3 23 30 29 42 63 63 46 36 28 3 4 1 4 18 39 35 46 34 48 58 52 26 31 19
12 9 9 8 2 0 1 2 4 3 3 2 2 4 5 3 2 2 1 1 3 10 32 40 32 28 5 6 2 3 8 8 4 1 0 1 1 1 2 3 3 3 3
16 12 11 8 10 6 3 1 3 2 2 2 2 2 1 1 6 4 2 1 1 1 1 1 0 1 0 0 0 0 3 3 2 2 1 0 0 0 0 1 1 0 7
10 17 13 10 9 8 8 6 5 4 1 1 1 1 1 1 1 1 0 2 5 5 2 1 0 1 2 1 1 0 0 2 3 0 0 0 0 0 1 1 1 1 0
5 4 12 7 5 4 7 4 1 1 1 1 1 1 2 2 1 1 1 2 2 2 2 1 1 2 2 1 1 1 1 1 0 0 0 0 0 0 0 0 0 0 0
3 4 4 5 3 1 3 2 1 2 1 3 3 2 2 1 2 1 2 2 2 2 1 4 0 1 2 0 0 0 0 0 1 0 0 0 0 0 0 0 0 1 2
2 3 3 4 2 3 2 2 2 2 4 3 3 2 3 2 2 2 2 3 2 2 1 0 1 1 1 1 0 0 0 1 1 0 0 0 0 1 0 0 1 0 1
0 1 1 4 2 2 1 2 2 3 3 1 1 2 2 2 2 1 2 1 2 1 2 1 3 1 1 1 1 0 0 0 0 1 0 0 0 0 0 0 0 0 3
0 0 2 2 2 1 2 0 3 3 1 0 0 2 4 5 4 2 2 2 1 1 2 2 2 3 1 2 2 1 0 0 0 0 1 0 1 1 0 0 0 0 0
0 0 2 2 1 2 3 2 2 3 0 0 0 1 2 5 10 7 5 6 5 5 5 5 3 4 4 3 2 2 0 0 0 1 2 2 2 1 0 1 0 0 1
1 1 1 2 3 4 3 1 1 2 0 0 1 1 3 4 7 10 7 5 4 5 5 5 3 3 3 4 4 3 2 0 0 0 0 1 1 0 1 0 0 1 1
3 2 2 3 3 4 4 1 0 0 1 1 1 2 1 3 5 9 12 9 9 11 9 9 8 6 5 8 5 2 2 1 0 0 0 0 0 0 0 0 0 1 1
1 2 1 1 2 2 4 5 4 1 0 1 3 3 2 2 2 4 6 3 3 3 5 8 8 10 7 7 7 4 3 0 0 1 2 1 1 1 0 1 0 0 0

GFSMW_con_sbcape_138.txt.gz
CAPE
0 2 3 3 0 0 0 0 0 0 0 1 1139 2045 2328 2229 2133 1904 1724 1808 1455 1905 1706 1253 1312 831 800 659 482 441 745 776 506 305 10 15 42 144 342 612 408 125 1
4 10 13 5 11 8 17 0 0 0 0 0 545 1836 2336 2706 2225 2265 1964 1899 1616 1497 1885 1678 1436 608 679 732 559 832 759 610 705 449 264 147 11 19 319 391 339 133 74
19 19 16 30 33 32 203 103 0 0 0 0 110 1490 1798 2216 2194 2397 2014 2152 1616 1228 1567 1812 1635 860 894 581 514 1024 825 542 302 602 402 213 175 119 41 106 137 264 39
6 4 24 30 12 25 46 295 22 0 0 0 65 1387 1541 1530 1793 2030 2214 2199 1719 1460 1233 1592 1746 1499 1133 987 631 1123 989 811 286 665 419 407 298 278 145 12 45 57 137
8 26 19 21 4 3 20 17 0 0 0 0 1 1444 1688 1455 1888 1849 2272 2365 2024 1398 1105 1310 1418 1383 1082 1469 1220 1041 1489 1295 795 549 619 581 378 372 325 264 11 18 22
15 21 16 15 8 5 16 8 66 0 0 0 26 1745 2255 1860 1781 2305 2546 2457 2120 1458 1158 1008 1132 1323 1145 1157 877 891 1385 1289 1081 636 592 695 463 283 288 269 348 81 21
22 7 21 11 9 8 18 21 226 0 0 0 15 1909 2355 2368 2593 2367 2541 2422 2040 1391 1289 1141 1061 1139 1205 1120 956 726 814 1426 1295 1035 766 796 748 466 325 339 242 317 234
15 12 19 16 8 17 15 16 50 0 0 0 3 1576 2384 2246 2356 2457 2508 2611 2337 1747 1513 1197 1125 1087 1151 1071 909 657 887 1638 1855 1397 1006 1071 927 707 483 408 419 425 396
16 15 13 13 7 13 24 21 8 263 7 0 21 1271 2494 2320 2330 2413 2699 2642 2547 2049 1795 1368 1082 1119 1135 1063 1047 864 764 1404 1755 2035 1768 1408 1235 1228 809 653 480 483 514
12 25 14 7 8 9 20 7 6 7 6 839 957 1706 2288 2449 2490 2630 2731 2909 2793 2268 1847 1379 1118 953 978 1068 1073 1025 1031 1151 1088 1003 1420 1229 872 642 613 708 666 595 523
23 32 20 4 9 0 8 10 9 11 8 5 7 1162 2036 2429 2604 2798 2713 2590 2450 2152 1848 1531 1193 916 967 819 697 829 1232 857 751 295 409 529 385 456 397 449 546 463 513
17 18 20 5 9 0 7 5 7 11 14 5 4 3 2 57 699 2047 2524 2462 2362 1795 1541 1202 937 627 609 531 522 666 543 694 449 252 197 263 145 280 346 237 150 90 214
18 20 13 7 4 5 12 6 5 12 13 5 3 4 6 3 2 1 177 973 884 760 674 426 405 376 341 301 339 468 479 355 239 151 101 192 163 213 418 326 372 291 196
19 19 11 8 4 3 9 15 5 7 7 7 7 8 7 10 11 4 1 1 761 946 953 977 322 372 197 140 177 270 368 447 128 94 26 37 31 103 180 312 254 167 192
9 25 14 11 7 3 0 12 5 7 5 2 4 14 5 5 11 5 3 1 1 393 807 725 470 213 187 167 62 36 152 155 112 59 50 184 101 74 165 220 202 234 122
6 19 18 15 12 8 12 6 2 8 4 3 2 5 1 2 7 4 4 1 2 2 2 62 60 62 6 14 18 50 97 217 100 80 56 5 0 0 0 0 0 0 4
4 15 22 17 15 12 17 13 8 3 1 1 0 4 1 2 4 4 3 3 3 3 3 1 1 1 1 1 2 8 15 9 42 80 29 13 0 0 1 1 1 1 0
1 2 5 7 6 12 8 8 6 4 3 3 2 1 3 1 3 3 5 3 4 9 4 2 2 3 1 1 2 0 1 2 1 8 7 5 0 0 0 0 0 1 3
0 1 3 4 3 4 5 2 4 1 1 3 3 2 2 2 3 3 4 5 4 7 8 3 1 1 3 4 4 1 0 0 1 1 0 1 2 1 0 0 0 1 4
0 0 1 3 3 4 4 1 2 3 4 4 4 3 3 2 3 6 4 4 5 4 2 2 2 1 1 1 2 0 1 1 0 2 0 0 0 1 0 1 1 1 4
0 0 1 2 4 5 4 2 1 4 2 2 3 4 5 5 4 4 3 4 5 2 4 2 5 4 2 2 2 1 0 1 1 0 1 1 0 0 0 0 0 3 3
1 0 1 3 4 5 6 2 2 4 3 3 3 4 5 5 5 3 3 3 4 5 7 6 7 7 7 4 5 2 1 0 0 0 1 2 2 1 0 1 0 0 1
2 1 1 2 4 5 6 7 5 2 3 3 3 3 4 4 6 6 6 6 7 11 11 8 9 8 8 7 2 5 2 1 1 1 1 1 1 1 1 1 0 0 4
2 3 2 2 3 6 6 7 7 2 2 3 3 4 7 7 5 7 11 12 13 15 15 13 14 11 10 8 7 7 7 2 2 1 4 1 1 1 1 1 1 1 1
2 3 5 4 4 6 5 5 7 6 1 3 3 5 6 6 8 8 10 14 15 13 16 17 12 10 8 10 8 6 5 4 2 3 2 1 1 0 1 1 1 1 1
2 2 3 4 5 6 7 9 8 8 7 2 3 5 8 10 8 9 13 0 3 4 4 6 10 11 6 5 4 2 0 0 0 3 4 5 5 4 3 3 3 2 1

GFSMW_con_sbcape_141.txt.gz
CAPE
12 19 0 0 0 0 2 0 0 0 97 0 0 0 1561 2341 2675 2729 2673 3023 2347 2857 2939 2425 2280 2008 1822 1731 1862 1067 1136 1313 956 761 285 146 298 367 372 1060 592 279 235
13 9 1 0 0 2 3 4 0 0 0 40 0 0 0 2208 2404 2755 2645 2854 2733 2626 2876 2718 2330 2192 1910 1972 1819 1427 1185 1388 796 653 205 37 10 26 60 425 589 433 255
11 1 0 0 5 1 9 4 2 2 2 102 9 0 0 694 2208 2283 2533 2824 2967 2442 2914 2841 2574 2353 2025 1906 1816 1564 1460 1260 1221 969 551 335 231 219 69 390 244 431 241
5 0 2 0 10 2 18 5 6 8 3 64 357 11 0 233 1727 2230 2170 2854 2918 2486 2564 2779 2764 2273 1923 1982 1798 1629 1839 1553 1167 1256 957 1124 358 414 338 137 411 302 169
3 0 1 7 10 9 20 11 5 5 8 14 573 21 47 338 1574 2163 1723 2384 2816 2644 2187 2758 2770 2524 2014 2110 1864 1634 2139 1748 1098 915 1252 1300 813 668 356 395 41 91 85
6 3 4 10 9 8 23 11 7 2 6 3 620 322 58 552 2109 2035 1854 1551 2373 2513 1860 1920 2814 2905 2220 2258 2043 1688 2166 1843 1645 1079 1280 1109 950 550 440 288 664 146 45
15 6 8 10 11 13 24 10 5 6 4 44 564 183 172 24 1968 2110 2156 1108 1756 2441 1830 1498 2380 2790 2582 2289 2418 1908 2085 2087 1792 1891 1185 1324 995 591 445 488 286 463 317
6 9 13 18 18 12 15 7 10 11 10 119 233 224 202 56 1914 1908 1744 555 161 1310 2083 1496 1658 2485 2633 2249 2415 2093 1941 2192 2256 1802 1775 1282 1189 711 489 536 537 521 617
5 13 11 11 15 11 13 7 13 10 13 26 582 245 334 224 1851 2206 2370 555 35 4 1825 1635 1501 1525 2160 2153 1996 1752 1699 2023 2226 2261 2062 1801 1515 1365 1155 1028 761 429 567
5 11 12 17 16 13 9 7 12 11 15 20 10 625 282 956 2344 2027 1439 1246 1181 1271 1794 1687 1493 1322 1308 1642 1527 1305 1234 1331 2162 2220 2063 1865 1616 1417 1388 1370 759 715 683
10 10 14 19 21 9 7 3 11 11 18 14 11 12 188 485 1778 2044 1774 1266 1567 1835 2060 2107 1518 1236 1132 1233 1223 957 933 1061 1797 2153 1890 1810 1846 1571 1307 1250 930 580 672
8 6 8 18 24 10 6 4 7 14 11 22 10 15 7 6 6 21 1135 1757 1905 2341 2262 2293 1678 1063 1087 1060 1134 1022 943 1210 1208 1483 1364 1773 1520 1298 1329 1060 793 568 696
5 6 8 8 14 13 8 5 7 11 17 13 12 16 6 6 8 4 6 78 1646 1735 1783 2049 1843 1077 1043 1020 1032 935 930 1412 1120 989 709 956 1007 648 491 495 480 382 279
5 11 10 5 8 5 6 7 9 6 10 12 8 9 13 11 11 8 5 2 2 818 1083 1055 1116 975 843 794 721 721 776 918 1051 958 606 471 386 509 295 310 325 275 280
5 10 18 8 2 4 2 5 7 7 11 11 6 8 9 15 7 6 8 9 3 3 223 971 551 630 572 524 475 415 536 555 601 321 295 221 231 224 238 94 101 119 292
6 4 15 18 3 4 7 10 9 7 9 11 9 6 4 8 10 3 7 9 5 3 1 1 577 609 0 0 26 377 322 307 225 115 153 107 27 0 0 1 0 0 224
4 2 11 14 10 11 10 17 7 8 7 5 5 6 2 5 10 5 3 7 5 4 3 2 2 2 1 1 1 2 493 294 217 142 35 5 0 0 0 2 0 1 1
1 0 1 2 1 5 4 7 2 8 10 9 8 1 1 5 8 3 2 8 8 6 5 4 3 4 1 0 0 1 0 79 3 2 0 0 0 0 0 0 1 0 0
1 0 1 3 2 1 2 2 2 6 5 8 7 6 5 2 1 0 2 7 4 5 3 4 1 2 2 1 0 1 0 1 1 0 1 1 1 1 1 0 1 1 0
1 0 0 1 3 2 2 1 1 3 4 4 9 7 8 9 7 5 2 3 6 4 2 1 1 0 0 1 2 0 0 0 0 0 0 0 0 1 0 0 0 0 0
1 0 0 1 3 2 3 3 1 2 6 3 4 4 5 6 7 6 4 2 3 1 1 0 2 3 2 3 3 3 0 1 0 0 0 0 0 0 0 0 0 0 0
0 0 1 2 3 2 2 3 2 2 3 4 1 3 6 7 6 7 7 6 5 6 7 2 1 2 5 4 5 2 1 0 0 0 0 0 1 1 0 0 0 0 0
0 0 2 3 4 3 4 3 4 2 3 4 3 3 3 5 11 12 5 9 9 12 9 7 6 8 8 6 3 5 2 1 1 1 3 2 2 1 0 0 0 0 0
1 0 1 3 6 4 4 4 6 4 4 4 4 5 6 6 3 9 12 8 11 14 13 15 12 11 8 8 6 6 4 2 1 1 4 1 1 1 0 0 1 1 1
2 2 3 4 5 5 5 5 6 6 4 6 6 3 10 9 11 2 4 13 12 12 13 9 15 12 10 9 3 3 3 3 1 0 0 0 1 2 1 0 1 0 1
4 3 3 3 5 8 9 6 10 10 8 7 5 13 17 12 13 12 3 1 1 1 5 6 7 14 5 1 2 1 0 0 0 1 3 5 3 2 2 1 1 2 1

GFSMW_con_sbcape_144.txt.gz
CAPE
0 0 0 0 0 0 0 0 0 0 0 0 0 0 0 0 0 1341 1647 2107 2068 2037 2476 2153 1712 1371 1212 1299 1199 1081 1095 1004 763 355 209 43 43 386 326 256 260 188 45
0 0 0 0 0 0 0 0 0 2 0 1 2 0 0 0 0 75 1359 1460 2048 1966 2338 2126 1651 1472 1229 1391 1303 1123 1123 868 779 426 35 10 0 0 109 235 195 160 107
0 0 0 0 0 0 0 0 1 1 4 6 3 1 0 0 0 0 1168 1272 1477 2010 2002 2124 1702 1600 1226 1295 1358 1020 943 897 785 398 180 64 11 0 0 14 211 202 97
0 0 0 0 0 0 1 1 4 5 6 10 7 12 10 1 0 0 0 1328 1071 1446 1313 1768 1730 1624 1297 1305 1399 1184 833 766 855 639 436 284 204 177 133 18 123 162 85
0 0 0 0 0 2 3 0 4 5 8 5 10 14 11 4 0 9 0 752 1131 757 1565 1725 1532 1673 1428 1268 1278 1159 915 984 983 653 574 477 583 813 404 136 135 154 158
0 0 0 0 0 0 2 3 5 8 7 5 6 13 15 13 1 31 0 788 996 958 857 1574 1623 1744 1553 1265 1357 1073 899 1082 931 864 600 697 656 567 423 327 45 77 74
0 0 0 2 0 4 6 5 7 8 6 7 10 9 15 12 1 57 0 282 790 889 966 1052 1585 1797 1598 1244 1314 1124 962 1138 927 667 548 573 559 564 334 332 265 134 80
0 0 0 4 0 4 4 3 9 8 6 7 7 2 8 55 248 11 0 0 1039 802 233 267 1245 1633 1663 1384 1219 1166 1035 1321 1069 944 472 621 663 637 244 186 251 261 325
0 0 0 1 0 7 12 3 9 5 8 12 8 1 5 3 94 0 1 30 247 623 446 0 41 1056 1854 1621 1385 1313 945 1292 1307 921 1120 649 630 735 368 228 235 310 235
0 0 0 0 3 8 11 4 5 5 9 12 13 11 4 5 161 130 0 389 542 78 143 35 7 10 1021 1465 1413 1653 1224 1083 1327 1421 976 1243 812 899 445 462 381 263 242
0 0 0 0 4 5 8 6 4 4 8 8 12 9 12 9 2 108 191 66 2 286 37 0 0 171 943 1222 1339 1473 1344 1154 1359 1366 1473 1306 1160 954 812 790 618 519 328
0 0 0 0 1 6 7 6 3 5 7 7 13 15 10 13 9 5 4 42 139 21 8 8 141 918 1013 984 1127 1149 1062 1016 994 1349 1433 1423 1230 955 803 680 520 419 307
0 0 0 0 0 3 5 7 3 3 5 7 15 10 10 12 16 16 11 6 7 2 0 91 738 982 900 865 929 885 754 718 641 841 1478 1425 1135 1047 984 713 612 476 321
0 0 0 0 0 0 1 4 5 3 5 4 5 11 13 8 10 10 13 15 9 0 4 0 0 433 773 861 887 766 692 684 769 902 1049 1293 1074 1016 869 656 496 344 293
0 0 0 0 0 0 0 0 3 3 5 5 4 5 7 5 4 4 10 14 9 3 7 4 2 102 196 16 265 843 798 793 983 828 774 644 499 621 461 376 309 247 189
0 0 0 0 0 0 0 0 1 0 3 5 4 6 6 4 2 3 11 7 6 9 5 13 9 6 3 12 0 3 679 716 759 501 405 215 215 146 202 41 44 121 78
0 0 0 0 0 0 0 0 2 0 0 0 5 5 5 6 3 2 4 5 4 2 4 4 11 16 10 6 6 5 23 295 285 225 147 48 4 12 0 1 2 1 1
0 0 0 0 0 0 0 1 1 1 1 2 5 7 6 5 4 1 2 7 4 4 2 3 4 3 2 5 6 3 0 103 127 50 5 0 1 1 0 1 1 1 1
0 0 0 0 0 0 1 2 2 0 0 3 5 7 7 8 4 2 2 4 5 2 3 3 3 3 2 2 0 0 0 1 1 1 0 0 1 1 1 0 1 1 1
0 0 0 0 0 0 1 4 3 2 1 3 4 3 3 5 4 2 3 6 4 3 2 0 1 2 2 3 2 0 0 0 0 0 0 0 0 1 1 0 0 0 1
0 0 0 0 0 2 2 3 3 1 4 4 2 3 4 1 4 2 2 2 3 0 0 0 0 2 2 1 3 1 0 0 0 0 0 0 0 0 1 0 0 0 0
0 0 0 1 0 2 4 2 4 2 4 6 1 6 4 0 0 2 0 1 2 3 2 1 0 1 0 4 2 1 0 0 0 0 0 0 0 1 0 0 0 0 0
0 0 0 0 0 2 3 5 8 0 4 7 5 4 6 6 2 2 1 1 2 3 2 3 2 1 0 0 2 6 2 1 0 0 1 1 2 1 0 0 0 0 0
0 0 0 1 1 3 4 6 6 6 5 7 3 3 5 5 1 2 4 1 1 1 2 2 1 1 0 0 0 0 0 1 0 0 0 0 0 0 0 0 0 0 0
0 1 1 1 1 2 3 6 9 8 9 8 5 5 3 3 3 1 1 3 1 5 2 0 1 0 0 1 2 2 0 0 0 0 0 0 0 0 0 0 0 0 0
2 1 2 2 2 3 3 5 7 8 8 6 4 8 5 3 3 2 2 2 1 1 6 8 1 1 4 6 5 0 3 0 0 0 0 0 0 0 0 0 0 0 0

GFSMW_con_sbcape_150.txt.gz
CAPE
0 0 0 0 0 0 0 0 0 0 0 0 0 0 0 0 0 0 0 0 0 0 0 0 767 1286 1408 859 569 613 484 383 291 262 11 0 1 110 68 5 13 0 0
0 0 0 0 0 0 0 0 0 0 0 0 0 0 0 0 0 0 0 0 0 0 0 0 0 889 1095 1051 545 561 527 512 270 385 357 152 30 0 0 10 23 11 4
0 0 0 0 0 0 0 0 0 0 0 0 0 0 0 0 0 0 0 0 2 1 0 0 0 112 769 1036 671 660 692 601 260 196 332 131 302 22 0 5 22 32 0
0 0 0 0 0 0 0 0 0 0 0 0 0 1 3 3 2 3 2 2 1 1 2 1 0 0 519 612 762 768 741 688 528 132 127 27 0 140 3 0 17 0 0
0 0 0 0 0 0 0 0 0 0 0 0 0 2 3 4 5 4 2 2 5 0 1 2 0 0 147 736 868 736 632 669 631 490 476 6 0 0 0 112 16 0 0
0 0 0 0 0 0 0 0 0 0 0 0 1 2 5 6 6 6 10 8 5 6 0 0 0 0 0 672 461 666 604 653 697 571 528 329 88 38 5 0 22 82 0
0 0 0 0 0 0 0 0 0 0 0 1 3 3 4 4 6 10 15 12 13 9 1 0 0 0 0 393 222 16 1 416 551 567 541 475 279 132 48 8 2 0 0
0 0 0 0 0 0 0 0 0 1 1 3 3 4 4 9 7 8 14 13 18 16 1 2 1 0 0 139 12 0 0 3 514 468 491 449 427 110 213 54 6 3 1
0 0 0 0 0 0 0 0 0 0 0 0 3 4 7 4 9 6 20 17 13 3 8 0 0 0 222 0 0 0 0 3 574 517 412 409 421 310 98 63 88 59 36
0 0 0 0 0 0 0 0 0 0 0 0 3 10 9 11 12 11 14 13 17 1 4 0 0 134 85 3 0 0 0 7 142 571 394 364 396 372 234 51 136 56 4
0 0 0 0 0 0 0 0 0 0 0 0 0 6 9 12 11 11 12 17 14 15 5 7 106 178 17 0 0 0 0 0 0 94 422 418 419 367 316 215 69 50 0
0 0 0 0 0 0 0 0 0 0 0 0 2 6 9 8 8 6 11 12 15 13 10 5 0 3 25 0 0 0 0 6 0 0 0 382 400 327 390 250 201 152 15
0 0 0 0 0 0 0 0 0 0 0 0 1 0 5 7 6 6 8 15 15 12 9 7 4 0 0 4 17 18 0 1 0 0 0 18 401 306 374 243 212 143 58
0 0 0 0 0 0 0 0 0 0 0 0 1 0 2 3 5 5 5 11 13 11 12 13 13 6 0 0 18 8 0 0 0 0 1 4 426 355 348 294 238 154 119
0 0 0 0 0 0 0 0 0 0 0 0 0 1 1 0 4 2 4 5 10 13 15 10 8 6 6 4 1 0 1 0 0 0 0 1 502 382 342 339 296 193 172
0 0 0 0 0 0 0 0 0 0 0 2 1 1 2 0 2 2 2 3 6 8 8 10 7 6 5 2 2 0 0 8 8 7 0 0 10 32 207 211 273 186 176
0 0 0 0 0 0 0 0 0 0 0 0 1 12 3 0 1 4 2 2 4 7 7 5 7 5 4 1 3 0 1 15 49 45 89 138 111 113 66 1 0 2 0
0 0 0 0 0 0 0 0 0 0 0 1 2 8 10 0 0 3 3 3 3 6 7 6 4 3 3 2 2 0 0 0 12 104 66 146 36 20 21 1 1 1 2
0 0 0 0 0 0 0 0 0 0 0 4 1 6 9 2 0 2 2 2 3 3 3 3 3 3 1 5 1 0 1 0 0 0 1 1 3 1 1 0 0 1 1
0 0 0 0 0 0 0 0 0 0 2 6 2 2 11 2 0 0 1 1 2 2 2 1 0 2 1 7 5 1 1 0 0 0 0 0 0 1 1 0 0 1 2
0 0 0 0 0 0 0 0 0 1 5 3 0 0 4 8 0 0 0 0 1 0 1 0 0 0 1 2 12 5 1 0 0 0 0 0 0 1 1 0 0 0 0
0 0 0 0 0 0 0 0 0 1 2 2 0 0 0 5 1 0 0 0 1 0 0 1 0 0 0 2 5 6 3 1 0 0 0 0 1 1 0 0 0 0 0
0 0 0 0 0 0 0 0 0 2 4 0 0 0 0 0 4 0 0 2 0 1 1 0 0 0 1 0 3 3 3 1 0 1 1 1 1 1 0 0 0 0 0
0 0 0 0 0 0 0 0 1 2 1 0 0 0 1 0 0 0 0 3 1 1 2 0 0 1 2 2 1 0 0 1 0 0 0 0 0 0 0 0 0 0 0
0 0 0 0 0 0 0 0 1 1 2 0 0 0 2 1 1 0 4 1 0 5 4 2 0 1 1 5 7 4 0 0 0 0 0 0 0 0 0 0 0 0 0
0 0 0 1 0 0 0 0 2 2 6 1 1 2 2 1 1 0 0 0 1 5 10 10 3 1 8 7 9 7 4 1 0 0 0 0 0 0 0 0 0 0 0